DH1GAP-13 Weather Reports


Display with metric or nautical units.
time (UTC)temp
F
wind
direction
speed
MPH
gust
MPH
rain 1hr
in
rain 24hr
in
rain mn
in
humidity
%
barometer
mb
20260902130606 81 180 0.0 0.0 0.00 0.00 0.00 50 1030.0
20260902130506 81 180 0.0 0.0 0.00 0.00 0.00 51 1030.1
20260902130407 81 180 3.0 0.0 0.00 0.00 0.00 51 1030.1
20260902130307 81 180 5.0 0.0 0.00 0.00 0.00 51 1030.0
20260902130206 81 180 0.0 0.0 0.00 0.00 0.00 51 1030.0
20260902130106 81 180 0.0 0.0 0.00 0.00 0.00 51 1030.0
20260902130006 81 180 0.0 0.0 0.00 0.00 0.00 51 1030.0
20260902125906 81 157 2.0 0.0 0.00 0.00 0.00 51 1030.0
20260902125806 80 157 5.0 0.0 0.00 0.00 0.00 51 1030.0
20260902125706 81 157 9.0 0.0 0.00 0.00 0.00 51 1030.0
20260902125606 80 157 7.0 0.0 0.00 0.00 0.00 51 1030.1
20260902125506 80 180 3.0 0.0 0.00 0.00 0.00 52 1030.0
20260902125406 80 180 0.0 0.0 0.00 0.00 0.00 52 1030.0
20260902125306 80 180 11.0 0.0 0.00 0.00 0.00 52 1030.0
20260902125206 80 180 7.0 0.0 0.00 0.00 0.00 52 1030.0
20260902125107 80 157 3.0 0.0 0.00 0.00 0.00 52 1030.0
20260902125007 80 157 0.0 0.0 0.00 0.00 0.00 52 1030.0
20260902124906 80 157 3.0 0.0 0.00 0.00 0.00 52 1030.0
20260902124806 80 157 9.0 0.0 0.00 0.00 0.00 52 1030.0
20260902124706 80 157 3.0 0.0 0.00 0.00 0.00 52 1030.1
20260902124606 80 157 0.0 0.0 0.00 0.00 0.00 52 1030.1
20260902124506 79 157 7.0 0.0 0.00 0.00 0.00 53 1030.3
20260902124406 79 180 9.0 0.0 0.00 0.00 0.00 53 1030.1
20260902124306 79 180 8.0 0.0 0.00 0.00 0.00 53 1030.0
20260902124206 79 180 3.0 0.0 0.00 0.00 0.00 53 1030.0
20260902124106 79 180 3.0 0.0 0.00 0.00 0.00 53 1030.1
20260902124006 79 180 9.0 0.0 0.00 0.00 0.00 53 1030.0
20260902123906 79 157 3.0 0.0 0.00 0.00 0.00 53 1030.1
20260902123806 79 157 14.0 0.0 0.00 0.00 0.00 53 1030.0
20260902123706 79 157 11.0 0.0 0.00 0.00 0.00 54 1030.0
20260902123606 79 180 18.0 0.0 0.00 0.00 0.00 54 1030.0
20260902123506 79 180 0.0 0.0 0.00 0.00 0.00 54 1030.0
20260902123406 79 180 10.0 0.0 0.00 0.00 0.00 54 1030.0
20260902123306 79 180 0.0 0.0 0.00 0.00 0.00 54 1030.0
20260902123206 79 180 3.0 0.0 0.00 0.00 0.00 54 1030.0
20260902123106 78 180 2.0 0.0 0.00 0.00 0.00 55 1030.0
20260902123006 78 157 7.0 0.0 0.00 0.00 0.00 55 1030.0
20260902122906 78 180 11.0 0.0 0.00 0.00 0.00 55 1030.0
20260902122806 78 180 6.0 0.0 0.00 0.00 0.00 55 1030.0
20260902122706 78 202 6.0 0.0 0.00 0.00 0.00 55 1030.0
20260902122606 78 202 9.0 0.0 0.00 0.00 0.00 55 1030.0
20260902122506 78 202 5.0 0.0 0.00 0.00 0.00 55 1030.0
20260902122406 78 202 3.0 0.0 0.00 0.00 0.00 55 1030.0
20260902122306 78 202 8.0 0.0 0.00 0.00 0.00 55 1030.0
20260902122206 78 202 14.0 0.0 0.00 0.00 0.00 56 1030.0
20260902122106 78 157 0.0 0.0 0.00 0.00 0.00 56 1030.1
20260902122006 78 135 3.0 0.0 0.00 0.00 0.00 56 1030.0
20260902121906 78 135 3.0 0.0 0.00 0.00 0.00 56 1030.0
20260902121806 78 157 9.0 0.0 0.00 0.00 0.00 56 1030.0
20260902121706 78 180 6.0 0.0 0.00 0.00 0.00 56 1030.3
20260902121606 77 157 7.0 0.0 0.00 0.00 0.00 56 1030.3
20260902121506 77 157 2.0 0.0 0.00 0.00 0.00 57 1030.1
20260902121406 77 180 14.0 0.0 0.00 0.00 0.00 57 1030.0
20260902121306 77 180 0.0 0.0 0.00 0.00 0.00 57 1030.1
20260902121206 77 180 0.0 0.0 0.00 0.00 0.00 57 1030.0
20260902121106 77 180 14.0 0.0 0.00 0.00 0.00 57 1030.0
20260902121006 77 180 5.0 0.0 0.00 0.00 0.00 57 1030.0
20260902120906 77 180 12.0 0.0 0.00 0.00 0.00 57 1030.1
20260902120806 77 180 11.0 0.0 0.00 0.00 0.00 57 1030.1
20260902120706 77 157 4.0 0.0 0.00 0.00 0.00 57 1030.0
20260902120606 77 157 9.0 0.0 0.00 0.00 0.00 58 1030.1
20260902120506 77 180 0.0 0.0 0.00 0.00 0.00 58 1030.1
20260902120406 77 157 9.0 0.0 0.00 0.00 0.00 58 1030.1
20260902120306 77 157 6.0 0.0 0.00 0.00 0.00 58 1030.0
20260902120206 77 135 9.0 0.0 0.00 0.00 0.00 58 1030.0
20260902120106 77 135 5.0 0.0 0.00 0.00 0.00 58 1030.3
20260902120006 77 157 11.0 0.0 0.00 0.00 0.00 58 1030.1
20260902115906 77 157 9.0 0.0 0.00 0.00 0.00 58 1030.3
20260902115806 77 157 10.0 0.0 0.00 0.00 0.00 58 1030.3
20260902115706 76 180 5.0 0.0 0.00 0.00 0.00 58 1030.3
20260902115606 77 180 0.0 0.0 0.00 0.00 0.00 59 1030.3
20260902115506 76 157 14.0 0.0 0.00 0.00 0.00 59 1030.4
20260902115406 76 180 0.0 0.0 0.00 0.00 0.00 59 1030.4
20260902115308 76 180 0.0 0.0 0.00 0.00 0.00 59 1030.4
20260902115206 76 180 6.0 0.0 0.00 0.00 0.00 59 1030.3
20260902115106 76 180 8.0 0.0 0.00 0.00 0.00 59 1030.3
20260902115006 76 202 3.0 0.0 0.00 0.00 0.00 59 1030.0
20260902114906 76 202 0.0 0.0 0.00 0.00 0.00 59 1030.1
20260902114806 76 202 0.0 0.0 0.00 0.00 0.00 60 1030.3
20260902114706 76 202 14.0 0.0 0.00 0.00 0.00 60 1030.1
20260902114606 76 180 13.0 0.0 0.00 0.00 0.00 60 1030.3
20260902114506 76 202 11.0 0.0 0.00 0.00 0.00 59 1030.3
20260902114406 76 202 10.0 0.0 0.00 0.00 0.00 60 1030.3
20260902114306 76 157 8.0 0.0 0.00 0.00 0.00 60 1030.3
20260902114206 76 180 7.0 0.0 0.00 0.00 0.00 60 1030.3
20260902114106 76 180 14.0 0.0 0.00 0.00 0.00 60 1030.1
20260902114006 76 180 0.0 0.0 0.00 0.00 0.00 60 1030.3
20260902113906 75 180 0.0 0.0 0.00 0.00 0.00 60 1030.3
20260902113806 75 180 5.0 0.0 0.00 0.00 0.00 60 1030.4
20260902113706 75 180 0.0 0.0 0.00 0.00 0.00 60 1030.3
20260902113606 75 180 0.0 0.0 0.00 0.00 0.00 60 1030.3
20260902113506 75 180 0.0 0.0 0.00 0.00 0.00 60 1030.1
20260902113406 75 157 3.0 0.0 0.00 0.00 0.00 60 1030.4
20260902113306 75 157 3.0 0.0 0.00 0.00 0.00 60 1030.4
20260902113206 75 157 0.0 0.0 0.00 0.00 0.00 60 1030.3
20260902113106 75 157 0.0 0.0 0.00 0.00 0.00 61 1030.4
20260902113006 75 157 4.0 0.0 0.00 0.00 0.00 61 1030.4
20260902112906 75 157 5.0 0.0 0.00 0.00 0.00 61 1030.4
20260902112806 75 157 10.0 0.0 0.00 0.00 0.00 61 1030.4
20260902112706 75 157 0.0 0.0 0.00 0.00 0.00 61 1030.4
20260902112606 75 157 6.0 0.0 0.00 0.00 0.00 61 1030.4
20260902112506 75 157 3.0 0.0 0.00 0.00 0.00 61 1030.4
20260902112406 75 157 2.0 0.0 0.00 0.00 0.00 61 1030.4
20260902112306 75 157 0.0 0.0 0.00 0.00 0.00 61 1030.5
20260902112206 75 157 0.0 0.0 0.00 0.00 0.00 61 1030.5
20260902112106 75 157 0.0 0.0 0.00 0.00 0.00 61 1030.5
20260902112006 74 157 0.0 0.0 0.00 0.00 0.00 61 1030.5
20260902111906 74 157 0.0 0.0 0.00 0.00 0.00 61 1030.5
20260902111806 74 157 0.0 0.0 0.00 0.00 0.00 61 1030.5
20260902111706 74 157 6.0 0.0 0.00 0.00 0.00 61 1030.5
20260902111606 74 180 10.0 0.0 0.00 0.00 0.00 62 1030.5
20260902111506 74 202 0.0 0.0 0.00 0.00 0.00 62 1030.5
20260902111406 74 225 0.0 0.0 0.00 0.00 0.00 62 1030.5
20260902111306 74 225 0.0 0.0 0.00 0.00 0.00 62 1030.5
20260902111206 74 225 0.0 0.0 0.00 0.00 0.00 62 1030.5
20260902111106 74 225 0.0 0.0 0.00 0.00 0.00 62 1030.5
20260902111006 74 225 0.0 0.0 0.00 0.00 0.00 62 1030.5
20260902110906 74 225 0.0 0.0 0.00 0.00 0.00 62 1030.6
20260902110806 74 247 2.0 0.0 0.00 0.00 0.00 62 1030.8
20260902110706 74 247 0.0 0.0 0.00 0.00 0.00 62 1030.6
20260902110606 74 247 0.0 0.0 0.00 0.00 0.00 62 1030.6
20260902110506 74 247 0.0 0.0 0.00 0.00 0.00 62 1030.8
20260902110406 74 247 0.0 0.0 0.00 0.00 0.00 62 1030.6
20260902110306 73 247 0.0 0.0 0.00 0.00 0.00 62 1030.6
20260902110206 73 247 0.0 0.0 0.00 0.00 0.00 62 1030.8
20260902110106 73 247 0.0 0.0 0.00 0.00 0.00 62 1030.8
20260902110008 73 247 0.0 0.0 0.00 0.00 0.00 62 1030.6
20260902105906 73 247 0.0 0.0 0.00 0.00 0.00 62 1030.8
20260902105806 73 247 0.0 0.0 0.00 0.00 0.00 62 1030.8
20260902105706 73 247 0.0 0.0 0.00 0.00 0.00 63 1030.8
20260902105606 73 247 0.0 0.0 0.00 0.00 0.00 63 1030.9
20260902105506 73 247 0.0 0.0 0.00 0.00 0.00 63 1030.9
20260902105406 73 247 0.0 0.0 0.00 0.00 0.00 63 1030.9
20260902105306 73 247 4.0 0.0 0.00 0.00 0.00 63 1030.9
20260902105206 73 247 0.0 0.0 0.00 0.00 0.00 63 1030.9
20260902105106 73 247 0.0 0.0 0.00 0.00 0.00 63 1031.0
20260902105006 73 247 0.0 0.0 0.00 0.00 0.00 63 1031.0
20260902104906 73 247 0.0 0.0 0.00 0.00 0.00 63 1030.9
20260902104806 73 247 0.0 0.0 0.00 0.00 0.00 63 1031.0
20260902104706 73 247 0.0 0.0 0.00 0.00 0.00 63 1030.9
20260902104606 73 247 0.0 0.0 0.00 0.00 0.00 63 1030.9
20260902104506 73 247 0.0 0.0 0.00 0.00 0.00 63 1030.9
20260902104406 73 247 0.0 0.0 0.00 0.00 0.00 63 1030.9
20260902104306 73 247 0.0 0.0 0.00 0.00 0.00 63 1030.9
20260902104206 73 247 0.0 0.0 0.00 0.00 0.00 63 1031.0
20260902104106 73 247 0.0 0.0 0.00 0.00 0.00 63 1030.9
20260902104006 73 247 0.0 0.0 0.00 0.00 0.00 63 1030.9
20260902103906 73 247 0.0 0.0 0.00 0.00 0.00 63 1031.0
20260902103806 72 247 0.0 0.0 0.00 0.00 0.00 63 1031.0
20260902103706 72 247 0.0 0.0 0.00 0.00 0.00 63 1030.9
20260902103606 72 247 0.0 0.0 0.00 0.00 0.00 63 1030.9
20260902103506 72 247 0.0 0.0 0.00 0.00 0.00 63 1030.9
20260902103406 72 247 0.0 0.0 0.00 0.00 0.00 63 1031.0
20260902103306 72 247 0.0 0.0 0.00 0.00 0.00 63 1031.0
20260902103206 72 247 0.0 0.0 0.00 0.00 0.00 63 1030.9
20260902103106 72 247 0.0 0.0 0.00 0.00 0.00 63 1031.0
20260902103006 72 247 0.0 0.0 0.00 0.00 0.00 63 1030.9
20260902102906 72 247 0.0 0.0 0.00 0.00 0.00 63 1030.9
20260902102806 72 247 0.0 0.0 0.00 0.00 0.00 63 1031.0
20260902102706 72 247 0.0 0.0 0.00 0.00 0.00 63 1031.0
20260902102606 72 247 0.0 0.0 0.00 0.00 0.00 63 1031.0
20260902102506 72 247 0.0 0.0 0.00 0.00 0.00 63 1030.9
20260902102406 72 247 0.0 0.0 0.00 0.00 0.00 63 1031.0
20260902102308 72 247 0.0 0.0 0.00 0.00 0.00 63 1031.0
20260902102206 72 247 0.0 0.0 0.00 0.00 0.00 63 1031.0
20260902102106 72 247 0.0 0.0 0.00 0.00 0.00 63 1031.0
20260902102006 72 247 0.0 0.0 0.00 0.00 0.00 63 1031.1
20260902101906 72 247 0.0 0.0 0.00 0.00 0.00 63 1031.1
20260902101806 72 247 0.0 0.0 0.00 0.00 0.00 63 1031.0
20260902101706 72 247 0.0 0.0 0.00 0.00 0.00 63 1031.1
20260902101606 72 247 0.0 0.0 0.00 0.00 0.00 63 1031.0
20260902101506 71 247 0.0 0.0 0.00 0.00 0.00 64 1031.1
20260902101406 71 247 0.0 0.0 0.00 0.00 0.00 64 1031.1
20260902101306 71 247 0.0 0.0 0.00 0.00 0.00 64 1031.0
20260902101206 71 247 0.0 0.0 0.00 0.00 0.00 64 1031.0
20260902101106 71 247 0.0 0.0 0.00 0.00 0.00 64 1031.0
20260902101006 71 247 0.0 0.0 0.00 0.00 0.00 64 1031.0
20260902100906 71 247 0.0 0.0 0.00 0.00 0.00 64 1031.0
20260902100806 71 247 0.0 0.0 0.00 0.00 0.00 64 1031.1
20260902100706 71 247 0.0 0.0 0.00 0.00 0.00 64 1031.1
20260902100606 71 247 0.0 0.0 0.00 0.00 0.00 64 1031.1
20260902100506 71 247 0.0 0.0 0.00 0.00 0.00 64 1031.0
20260902100406 71 247 6.0 0.0 0.00 0.00 0.00 64 1031.1
20260902100306 71 247 0.0 0.0 0.00 0.00 0.00 64 1031.1
20260902100206 71 247 0.0 0.0 0.00 0.00 0.00 64 1031.1
20260902100106 71 247 0.0 0.0 0.00 0.00 0.00 64 1031.1
20260902100006 71 247 0.0 0.0 0.00 0.00 0.00 64 1031.1
20260902095906 71 247 0.0 0.0 0.00 0.00 0.00 64 1031.3
20260902095806 71 247 0.0 0.0 0.00 0.00 0.00 64 1031.1
20260902095706 71 247 0.0 0.0 0.00 0.00 0.00 64 1031.3
20260902095606 71 247 0.0 0.0 0.00 0.00 0.00 64 1031.3
20260902095506 71 247 0.0 0.0 0.00 0.00 0.00 64 1031.3
20260902095406 71 247 0.0 0.0 0.00 0.00 0.00 64 1031.3
20260902095307 71 247 0.0 0.0 0.00 0.00 0.00 64 1031.4
20260902095206 71 247 0.0 0.0 0.00 0.00 0.00 64 1031.4
20260902095106 71 247 0.0 0.0 0.00 0.00 0.00 64 1031.4
20260902095006 71 247 0.0 0.0 0.00 0.00 0.00 64 1031.4
20260902094906 71 247 0.0 0.0 0.00 0.00 0.00 64 1031.5
20260902094806 71 247 0.0 0.0 0.00 0.00 0.00 64 1031.5
20260902094706 71 247 0.0 0.0 0.00 0.00 0.00 64 1031.4
20260902094606 71 247 0.0 0.0 0.00 0.00 0.00 64 1031.5
20260902094506 71 247 0.0 0.0 0.00 0.00 0.00 64 1031.5
20260902094406 71 247 0.0 0.0 0.00 0.00 0.00 64 1031.5
20260902094306 71 247 0.0 0.0 0.00 0.00 0.00 64 1031.5
20260902094206 71 247 0.0 0.0 0.00 0.00 0.00 64 1031.5
20260902094106 71 247 0.0 0.0 0.00 0.00 0.00 64 1031.5
20260902094006 71 247 0.0 0.0 0.00 0.00 0.00 64 1031.4
20260902093906 71 247 0.0 0.0 0.00 0.00 0.00 64 1031.3
20260902093806 71 247 0.0 0.0 0.00 0.00 0.00 64 1031.5
20260902093706 71 247 0.0 0.0 0.00 0.00 0.00 64 1031.4
20260902093606 71 247 0.0 0.0 0.00 0.00 0.00 64 1031.5
20260902093506 71 247 0.0 0.0 0.00 0.00 0.00 64 1031.5
20260902093406 71 247 0.0 0.0 0.00 0.00 0.00 64 1031.5
20260902093306 70 247 0.0 0.0 0.00 0.00 0.00 65 1031.4
20260902093206 70 247 0.0 0.0 0.00 0.00 0.00 65 1031.5
20260902093106 70 247 0.0 0.0 0.00 0.00 0.00 65 1031.5
20260902093006 70 247 0.0 0.0 0.00 0.00 0.00 65 1031.5
20260902092906 70 247 0.0 0.0 0.00 0.00 0.00 65 1031.5
20260902092806 70 247 0.0 0.0 0.00 0.00 0.00 65 1031.5
20260902092706 70 247 0.0 0.0 0.00 0.00 0.00 65 1031.5
20260902092606 70 247 0.0 0.0 0.00 0.00 0.00 65 1031.5
20260902092506 70 247 0.0 0.0 0.00 0.00 0.00 65 1031.5
20260902092406 70 247 0.0 0.0 0.00 0.00 0.00 65 1031.5
20260902092306 70 247 0.0 0.0 0.00 0.00 0.00 65 1031.4
20260902092206 70 247 0.0 0.0 0.00 0.00 0.00 65 1031.4
20260902092106 70 247 0.0 0.0 0.00 0.00 0.00 65 1031.4
20260902092006 70 247 0.0 0.0 0.00 0.00 0.00 65 1031.4
20260902091906 70 247 0.0 0.0 0.00 0.00 0.00 65 1031.5
20260902091806 70 247 0.0 0.0 0.00 0.00 0.00 65 1031.5
20260902091706 70 247 0.0 0.0 0.00 0.00 0.00 65 1031.5
20260902091606 70 247 0.0 0.0 0.00 0.00 0.00 65 1031.5
20260902091506 70 247 0.0 0.0 0.00 0.00 0.00 65 1031.4
20260902091406 70 247 0.0 0.0 0.00 0.00 0.00 65 1031.4
20260902091306 70 247 0.0 0.0 0.00 0.00 0.00 65 1031.5
20260902091206 70 247 0.0 0.0 0.00 0.00 0.00 65 1031.5
20260902091106 70 247 0.0 0.0 0.00 0.00 0.00 65 1031.5
20260902091006 70 247 0.0 0.0 0.00 0.00 0.00 65 1031.5
20260902090906 70 247 0.0 0.0 0.00 0.00 0.00 65 1031.5
20260902090806 70 247 0.0 0.0 0.00 0.00 0.00 65 1031.5
20260902090706 70 247 0.0 0.0 0.00 0.00 0.00 65 1031.5
20260902090606 70 247 0.0 0.0 0.00 0.00 0.00 66 1031.5
20260902090506 70 247 0.0 0.0 0.00 0.00 0.00 66 1031.5
20260902090406 70 247 0.0 0.0 0.00 0.00 0.00 66 1031.5
20260902090306 70 247 0.0 0.0 0.00 0.00 0.00 66 1031.5
20260902090206 70 247 0.0 0.0 0.00 0.00 0.00 66 1031.4
20260902090106 70 247 0.0 0.0 0.00 0.00 0.00 66 1031.4
20260902090006 70 247 0.0 0.0 0.00 0.00 0.00 66 1031.5
20260902085906 69 247 0.0 0.0 0.00 0.00 0.00 66 1031.5
20260902085806 69 247 0.0 0.0 0.00 0.00 0.00 66 1031.5
20260902085706 69 247 0.0 0.0 0.00 0.00 0.00 66 1031.5
20260902085606 69 247 0.0 0.0 0.00 0.00 0.00 66 1031.5
20260902085506 69 247 0.0 0.0 0.00 0.00 0.00 66 1031.5
20260902085406 69 247 0.0 0.0 0.00 0.00 0.00 66 1031.5
20260902085306 69 247 0.0 0.0 0.00 0.00 0.00 66 1031.5
20260902085206 69 247 0.0 0.0 0.00 0.00 0.00 66 1031.5
20260902085106 69 247 0.0 0.0 0.00 0.00 0.00 66 1031.5
20260902085006 69 247 0.0 0.0 0.00 0.00 0.00 66 1031.5
20260902084906 69 247 0.0 0.0 0.00 0.00 0.00 66 1031.5
20260902084806 69 247 0.0 0.0 0.00 0.00 0.00 66 1031.5
20260902084706 69 247 0.0 0.0 0.00 0.00 0.00 66 1031.5
20260902084606 69 247 0.0 0.0 0.00 0.00 0.00 66 1031.5
20260902084506 69 247 0.0 0.0 0.00 0.00 0.00 67 1031.5
20260902084406 69 247 0.0 0.0 0.00 0.00 0.00 67 1031.5
20260902084306 69 247 0.0 0.0 0.00 0.00 0.00 67 1031.5
20260902084206 69 247 0.0 0.0 0.00 0.00 0.00 67 1031.5
20260902084106 69 247 0.0 0.0 0.00 0.00 0.00 67 1031.5
20260902084006 69 247 0.0 0.0 0.00 0.00 0.00 67 1031.5
20260902083906 69 247 0.0 0.0 0.00 0.00 0.00 67 1031.5
20260902083806 69 247 0.0 0.0 0.00 0.00 0.00 67 1031.5
20260902083706 69 247 0.0 0.0 0.00 0.00 0.00 67 1031.4
20260902083606 69 247 0.0 0.0 0.00 0.00 0.00 67 1031.4
20260902083506 69 247 0.0 0.0 0.00 0.00 0.00 67 1031.4
20260902083406 69 247 0.0 0.0 0.00 0.00 0.00 68 1031.4
20260902083306 69 247 0.0 0.0 0.00 0.00 0.00 68 1031.4
20260902083206 69 247 0.0 0.0 0.00 0.00 0.00 68 1031.1
20260902083106 69 247 0.0 0.0 0.00 0.00 0.00 68 1031.3
20260902083006 69 247 0.0 0.0 0.00 0.00 0.00 68 1031.3
20260902082906 69 247 0.0 0.0 0.00 0.00 0.00 68 1031.3
20260902082806 68 247 0.0 0.0 0.00 0.00 0.00 68 1031.3
20260902082706 68 247 0.0 0.0 0.00 0.00 0.00 68 1031.3
20260902082606 68 247 0.0 0.0 0.00 0.00 0.00 68 1031.3
20260902082506 68 247 0.0 0.0 0.00 0.00 0.00 69 1031.3
20260902082406 68 247 0.0 0.0 0.00 0.00 0.00 69 1031.1
20260902082309 68 247 0.0 0.0 0.00 0.00 0.00 69 1031.3
20260902082206 67 247 0.0 0.0 0.00 0.00 0.00 69 1031.1
20260902082106 67 247 0.0 0.0 0.00 0.00 0.00 69 1031.3
20260902082006 67 247 0.0 0.0 0.00 0.00 0.00 69 1031.3
20260902081906 67 247 0.0 0.0 0.00 0.00 0.00 69 1031.3
20260902081806 67 247 0.0 0.0 0.00 0.00 0.00 69 1031.1
20260902081706 66 247 0.0 0.0 0.00 0.00 0.00 69 1031.1
20260902081606 66 247 0.0 0.0 0.00 0.00 0.00 69 1031.1
20260902081506 66 247 0.0 0.0 0.00 0.00 0.00 69 1031.0
20260902081406 66 247 0.0 0.0 0.00 0.00 0.00 69 1031.0
20260902081306 66 247 0.0 0.0 0.00 0.00 0.00 69 1031.0
20260902081206 66 247 0.0 0.0 0.00 0.00 0.00 69 1031.0
20260902081106 66 247 0.0 0.0 0.00 0.00 0.00 69 1031.0
20260902081006 66 247 0.0 0.0 0.00 0.00 0.00 70 1031.0
20260902080906 65 247 0.0 0.0 0.00 0.00 0.00 70 1031.0
20260902080806 65 247 0.0 0.0 0.00 0.00 0.00 70 1031.0
20260902080706 65 247 0.0 0.0 0.00 0.00 0.00 70 1031.0
20260902080606 65 247 0.0 0.0 0.00 0.00 0.00 70 1031.0
20260902080506 65 247 0.0 0.0 0.00 0.00 0.00 70 1031.0
20260902080406 65 247 0.0 0.0 0.00 0.00 0.00 70 1031.0
20260902080306 65 247 0.0 0.0 0.00 0.00 0.00 70 1031.0
20260902080206 65 247 0.0 0.0 0.00 0.00 0.00 70 1031.0
20260902080106 64 247 0.0 0.0 0.00 0.00 0.00 70 1031.1
20260902080006 64 247 0.0 0.0 0.00 0.00 0.00 70 1031.1
20260902075906 64 247 0.0 0.0 0.00 0.00 0.00 70 1031.1
20260902075806 64 247 0.0 0.0 0.00 0.00 0.00 70 1031.3
20260902075706 64 247 0.0 0.0 0.00 0.00 0.00 70 1031.3
20260902075606 64 247 0.0 0.0 0.00 0.00 0.00 70 1031.3
20260902075506 64 247 0.0 0.0 0.00 0.00 0.00 70 1031.3
20260902075406 64 247 0.0 0.0 0.00 0.00 0.00 70 1031.3
20260902075306 64 247 0.0 0.0 0.00 0.00 0.00 70 1031.4
20260902075206 64 247 0.0 0.0 0.00 0.00 0.00 70 1031.3
20260902075106 64 247 0.0 0.0 0.00 0.00 0.00 70 1031.1
20260902075006 64 247 0.0 0.0 0.00 0.00 0.00 70 1031.1
20260902074906 64 247 0.0 0.0 0.00 0.00 0.00 70 1031.1
20260902074806 64 247 0.0 0.0 0.00 0.00 0.00 70 1031.1
20260902074706 64 247 0.0 0.0 0.00 0.00 0.00 70 1031.0
20260902074606 64 247 0.0 0.0 0.00 0.00 0.00 70 1031.1
20260902074506 64 247 0.0 0.0 0.00 0.00 0.00 70 1031.1
20260902074406 64 247 0.0 0.0 0.00 0.00 0.00 70 1031.1
20260902074306 64 247 0.0 0.0 0.00 0.00 0.00 71 1031.1
20260902074206 64 247 0.0 0.0 0.00 0.00 0.00 71 1031.0
20260902074106 64 247 0.0 0.0 0.00 0.00 0.00 71 1031.0
20260902074006 64 247 0.0 0.0 0.00 0.00 0.00 71 1031.0
20260902073906 64 247 0.0 0.0 0.00 0.00 0.00 71 1031.1
20260902073806 64 247 0.0 0.0 0.00 0.00 0.00 71 1031.1
20260902073706 64 247 0.0 0.0 0.00 0.00 0.00 71 1031.0
20260902073606 64 247 0.0 0.0 0.00 0.00 0.00 71 1031.0
20260902073506 64 247 0.0 0.0 0.00 0.00 0.00 71 1031.0
20260902073406 64 247 0.0 0.0 0.00 0.00 0.00 71 1031.0
20260902073306 64 247 0.0 0.0 0.00 0.00 0.00 71 1031.0
20260902073206 64 247 0.0 0.0 0.00 0.00 0.00 71 1031.0
20260902073106 64 247 0.0 0.0 0.00 0.00 0.00 71 1031.0
20260902073006 64 247 0.0 0.0 0.00 0.00 0.00 71 1031.0
20260902072906 64 247 0.0 0.0 0.00 0.00 0.00 71 1031.0
20260902072806 64 247 0.0 0.0 0.00 0.00 0.00 71 1031.0
20260902072706 64 247 0.0 0.0 0.00 0.00 0.00 71 1031.0
20260902072606 65 247 0.0 0.0 0.00 0.00 0.00 71 1031.1
20260902072506 64 247 0.0 0.0 0.00 0.00 0.00 71 1031.1
20260902072406 65 247 0.0 0.0 0.00 0.00 0.00 71 1031.0
20260902072309 65 247 0.0 0.0 0.00 0.00 0.00 71 1031.0
20260902072206 64 247 0.0 0.0 0.00 0.00 0.00 71 1031.0
20260902072106 65 247 0.0 0.0 0.00 0.00 0.00 71 1031.0
20260902072006 64 247 0.0 0.0 0.00 0.00 0.00 72 1031.0
20260902071906 64 247 0.0 0.0 0.00 0.00 0.00 72 1031.0
20260902071806 64 247 0.0 0.0 0.00 0.00 0.00 72 1031.0
20260902071706 64 247 0.0 0.0 0.00 0.00 0.00 72 1031.0
20260902071606 64 247 0.0 0.0 0.00 0.00 0.00 72 1031.0
20260902071506 64 247 0.0 0.0 0.00 0.00 0.00 72 1031.0
20260902071406 64 247 0.0 0.0 0.00 0.00 0.00 72 1031.0
20260902071306 64 247 0.0 0.0 0.00 0.00 0.00 72 1031.0
20260902071206 64 247 0.0 0.0 0.00 0.00 0.00 72 1031.0
20260902071106 64 247 0.0 0.0 0.00 0.00 0.00 72 1031.0
20260902071006 64 247 0.0 0.0 0.00 0.00 0.00 72 1031.0
20260902070906 64 247 0.0 0.0 0.00 0.00 0.00 72 1031.0
20260902070806 64 247 0.0 0.0 0.00 0.00 0.00 72 1031.0
20260902070706 64 247 0.0 0.0 0.00 0.00 0.00 72 1031.0
20260902070606 64 247 0.0 0.0 0.00 0.00 0.00 72 1031.0
20260902070506 64 247 0.0 0.0 0.00 0.00 0.00 72 1031.0
20260902070406 64 247 0.0 0.0 0.00 0.00 0.00 73 1031.0
20260902070306 64 247 0.0 0.0 0.00 0.00 0.00 73 1031.0
20260902070206 64 247 0.0 0.0 0.00 0.00 0.00 73 1031.0
20260902070106 64 247 0.0 0.0 0.00 0.00 0.00 73 1031.0
20260902070007 64 247 0.0 0.0 0.00 0.00 0.00 73 1031.0
20260902065906 64 247 0.0 0.0 0.00 0.00 0.00 73 1031.0
20260902065806 64 247 0.0 0.0 0.00 0.00 0.00 73 1031.0
20260902065706 64 247 0.0 0.0 0.00 0.00 0.00 73 1031.0
20260902065606 64 247 0.0 0.0 0.00 0.00 0.00 73 1031.0
20260902065506 63 247 0.0 0.0 0.00 0.00 0.00 73 1031.0
20260902065406 63 247 0.0 0.0 0.00 0.00 0.00 73 1031.0
20260902065307 63 247 0.0 0.0 0.00 0.00 0.00 73 1031.0
20260902065206 63 247 0.0 0.0 0.00 0.00 0.00 73 1031.0
20260902065106 63 247 0.0 0.0 0.00 0.00 0.00 73 1031.0
20260902065006 63 247 0.0 0.0 0.00 0.00 0.00 74 1031.1
20260902064906 63 247 0.0 0.0 0.00 0.00 0.00 74 1031.1
20260902064806 63 247 0.0 0.0 0.00 0.00 0.00 74 1031.0
20260902064706 63 247 0.0 0.0 0.00 0.00 0.00 74 1031.1
20260902064606 62 247 0.0 0.0 0.00 0.00 0.00 74 1031.1
20260902064506 62 247 0.0 0.0 0.00 0.00 0.00 74 1031.0
20260902064406 62 247 0.0 0.0 0.00 0.00 0.00 74 1031.0
20260902064306 62 247 0.0 0.0 0.00 0.00 0.00 75 1031.1
20260902064206 62 247 0.0 0.0 0.00 0.00 0.00 75 1031.0
20260902064106 62 247 0.0 0.0 0.00 0.00 0.00 75 1031.0
20260902064006 62 247 0.0 0.0 0.00 0.00 0.00 75 1031.0
20260902063906 62 247 0.0 0.0 0.00 0.00 0.00 75 1031.0
20260902063806 62 247 0.0 0.0 0.00 0.00 0.00 75 1031.0
20260902063706 61 247 0.0 0.0 0.00 0.00 0.00 75 1031.0
20260902063606 61 247 0.0 0.0 0.00 0.00 0.00 75 1031.1
20260902063506 61 247 0.0 0.0 0.00 0.00 0.00 75 1031.1
20260902063406 61 247 0.0 0.0 0.00 0.00 0.00 75 1031.1
20260902063306 61 247 0.0 0.0 0.00 0.00 0.00 75 1031.1
20260902063206 61 247 0.0 0.0 0.00 0.00 0.00 75 1031.1
20260902063106 61 247 0.0 0.0 0.00 0.00 0.00 75 1031.1
20260902063006 60 247 0.0 0.0 0.00 0.00 0.00 75 1031.1
20260902062906 60 247 0.0 0.0 0.00 0.00 0.00 75 1031.1
20260902062806 60 247 0.0 0.0 0.00 0.00 0.00 75 1031.1
20260902062706 60 247 0.0 0.0 0.00 0.00 0.00 75 1031.1
20260902062606 60 247 0.0 0.0 0.00 0.00 0.00 75 1031.0
20260902062506 60 247 0.0 0.0 0.00 0.00 0.00 76 1031.1
20260902062406 60 247 0.0 0.0 0.00 0.00 0.00 76 1031.1
20260902062306 60 247 0.0 0.0 0.00 0.00 0.00 76 1031.0
20260902062206 59 247 0.0 0.0 0.00 0.00 0.00 76 1031.0
20260902062106 59 247 0.0 0.0 0.00 0.00 0.00 75 1031.0
20260902062006 59 247 0.0 0.0 0.00 0.00 0.00 75 1031.0
20260902061906 59 247 0.0 0.0 0.00 0.00 0.00 75 1031.0
20260902061806 59 247 0.0 0.0 0.00 0.00 0.00 75 1031.0
20260902061706 58 247 0.0 0.0 0.00 0.00 0.00 75 1031.0
20260902061606 58 247 0.0 0.0 0.00 0.00 0.00 75 1031.0
20260902061506 58 247 0.0 0.0 0.00 0.00 0.00 75 1031.0
20260902061406 58 247 0.0 0.0 0.00 0.00 0.00 75 1031.0
20260902061306 58 247 0.0 0.0 0.00 0.00 0.00 75 1031.0
20260902061206 57 247 0.0 0.0 0.00 0.00 0.00 75 1031.0
20260902061106 57 247 0.0 0.0 0.00 0.00 0.00 76 1031.0
20260902061006 57 247 0.0 0.0 0.00 0.00 0.00 76 1031.0
20260902060906 57 247 0.0 0.0 0.00 0.00 0.00 76 1031.0
20260902060806 57 247 0.0 0.0 0.00 0.00 0.00 76 1031.1
20260902060706 57 247 0.0 0.0 0.00 0.00 0.00 76 1031.1
20260902060606 57 247 0.0 0.0 0.00 0.00 0.00 76 1031.1
20260902060506 57 247 0.0 0.0 0.00 0.00 0.00 76 1031.1
20260902060406 57 247 0.0 0.0 0.00 0.00 0.00 76 1031.0
20260902060306 57 247 0.0 0.0 0.00 0.00 0.00 76 1031.1
20260902060206 57 247 0.0 0.0 0.00 0.00 0.00 76 1031.1
20260902060106 57 247 0.0 0.0 0.00 0.00 0.00 76 1031.0
20260902060006 56 247 0.0 0.0 0.00 0.00 0.00 76 1031.0
20260902055906 56 247 0.0 0.0 0.00 0.00 0.00 76 1031.1
20260902055806 56 247 0.0 0.0 0.00 0.00 0.00 76 1031.0
20260902055706 56 247 0.0 0.0 0.00 0.00 0.00 76 1031.0
20260902055606 56 247 0.0 0.0 0.00 0.00 0.00 75 1031.1
20260902055506 56 247 0.0 0.0 0.00 0.00 0.00 75 1031.1
20260902055406 55 247 0.0 0.0 0.00 0.00 0.00 76 1031.1
20260902055307 55 247 0.0 0.0 0.00 0.00 0.00 76 1031.1
20260902055206 55 247 0.0 0.0 0.00 0.00 0.00 76 1031.0
20260902055106 55 247 0.0 0.0 0.00 0.00 0.00 76 1031.0
20260902055006 55 247 0.0 0.0 0.00 0.00 0.00 76 1031.0
20260902054906 55 247 0.0 0.0 0.00 0.00 0.00 76 1031.0
20260902054806 55 247 0.0 0.0 0.00 0.00 0.00 76 1031.0
20260902054706 55 247 0.0 0.0 0.00 0.00 0.00 76 1031.0
20260902054606 56 247 0.0 0.0 0.00 0.00 0.00 76 1031.0
20260902054506 56 247 0.0 0.0 0.00 0.00 0.00 76 1031.0
20260902054406 56 247 0.0 0.0 0.00 0.00 0.00 76 1031.0
20260902054306 56 247 0.0 0.0 0.00 0.00 0.00 76 1031.0
20260902054206 56 247 0.0 0.0 0.00 0.00 0.00 76 1031.0
20260902054106 55 247 0.0 0.0 0.00 0.00 0.00 76 1030.9
20260902054006 55 247 0.0 0.0 0.00 0.00 0.00 76 1031.0
20260902053906 55 247 0.0 0.0 0.00 0.00 0.00 76 1030.9
20260902053806 55 247 0.0 0.0 0.00 0.00 0.00 76 1030.9
20260902053706 55 247 0.0 0.0 0.00 0.00 0.00 76 1030.9
20260902053606 55 247 0.0 0.0 0.00 0.00 0.00 76 1030.9
20260902053506 55 247 0.0 0.0 0.00 0.00 0.00 76 1031.0
20260902053406 55 247 0.0 0.0 0.00 0.00 0.00 76 1030.8
20260902053306 54 247 0.0 0.0 0.00 0.00 0.00 76 1030.9
20260902053206 54 247 0.0 0.0 0.00 0.00 0.00 76 1030.9
20260902053106 54 247 0.0 0.0 0.00 0.00 0.00 76 1030.9
20260902053006 54 247 0.0 0.0 0.00 0.00 0.00 76 1030.8
20260902052906 54 247 0.0 0.0 0.00 0.00 0.00 76 1030.9
20260902052806 53 247 0.0 0.0 0.00 0.00 0.00 76 1030.8
20260902052706 53 247 0.0 0.0 0.00 0.00 0.00 76 1030.8
20260902052606 53 247 0.0 0.0 0.00 0.00 0.00 76 1030.8
20260902052506 53 247 0.0 0.0 0.00 0.00 0.00 76 1030.8
20260902052406 53 247 0.0 0.0 0.00 0.00 0.00 76 1030.9
20260902052307 52 247 0.0 0.0 0.00 0.00 0.00 76 1030.9
20260902052206 52 247 0.0 0.0 0.00 0.00 0.00 76 1030.9
20260902052106 52 247 0.0 0.0 0.00 0.00 0.00 76 1030.8
20260902052006 52 247 0.0 0.0 0.00 0.00 0.00 76 1030.8
20260902051906 52 247 0.0 0.0 0.00 0.00 0.00 76 1030.8
20260902051806 52 247 0.0 0.0 0.00 0.00 0.00 76 1030.8
20260902051706 52 247 0.0 0.0 0.00 0.00 0.00 76 1030.9
20260902051606 52 247 0.0 0.0 0.00 0.00 0.00 76 1030.9
20260902051506 51 247 0.0 0.0 0.00 0.00 0.00 76 1030.8
20260902051406 51 247 0.0 0.0 0.00 0.00 0.00 76 1030.9
20260902051306 51 247 0.0 0.0 0.00 0.00 0.00 76 1030.9
20260902051206 51 247 0.0 0.0 0.00 0.00 0.00 76 1030.8
20260902051106 51 247 0.0 0.0 0.00 0.00 0.00 76 1030.8
20260902051006 51 247 0.0 0.0 0.00 0.00 0.00 76 1030.9
20260902050906 51 247 0.0 0.0 0.00 0.00 0.00 76 1030.8
20260902050806 50 247 0.0 0.0 0.00 0.00 0.00 76 1030.8
20260902050706 50 247 0.0 0.0 0.00 0.00 0.00 76 1030.6
20260902050606 50 247 0.0 0.0 0.00 0.00 0.00 76 1030.6
20260902050506 50 247 0.0 0.0 0.00 0.00 0.00 76 1030.8
20260902050406 50 247 0.0 0.0 0.00 0.00 0.00 76 1030.8
20260902050306 50 247 0.0 0.0 0.00 0.00 0.00 76 1030.8
20260902050206 50 247 0.0 0.0 0.00 0.00 0.00 76 1030.8
20260902050106 50 247 0.0 0.0 0.00 0.00 0.00 76 1030.8
20260902050008 50 247 0.0 0.0 0.00 0.00 0.00 76 1030.8
20260902045906 50 247 0.0 0.0 0.00 0.00 0.00 76 1030.8
20260902045806 50 247 0.0 0.0 0.00 0.00 0.00 76 1030.8
20260902045706 50 247 0.0 0.0 0.00 0.00 0.00 76 1030.8
20260902045606 50 247 0.0 0.0 0.00 0.00 0.00 76 1030.8
20260902045506 50 247 0.0 0.0 0.00 0.00 0.00 76 1030.8
20260902045406 50 247 0.0 0.0 0.00 0.00 0.00 76 1030.8
20260902045306 50 247 0.0 0.0 0.00 0.00 0.00 76 1030.8
20260902045206 50 247 0.0 0.0 0.00 0.00 0.00 76 1030.8
20260902045106 50 247 0.0 0.0 0.00 0.00 0.00 76 1030.8
20260902045006 50 247 0.0 0.0 0.00 0.00 0.00 76 1030.8
20260902044906 50 247 0.0 0.0 0.00 0.00 0.00 76 1030.9
20260902044806 50 247 0.0 0.0 0.00 0.00 0.00 76 1030.6
20260902044706 50 247 0.0 0.0 0.00 0.00 0.00 76 1030.6
20260902044606 50 247 0.0 0.0 0.00 0.00 0.00 76 1030.6
20260902044506 49 247 0.0 0.0 0.00 0.00 0.00 76 1030.8
20260902044406 49 247 0.0 0.0 0.00 0.00 0.00 76 1030.8
20260902044306 49 247 0.0 0.0 0.00 0.00 0.00 76 1030.6
20260902044206 49 247 0.0 0.0 0.00 0.00 0.00 76 1030.8
20260902044106 49 247 0.0 0.0 0.00 0.00 0.00 76 1030.8
20260902044006 49 247 0.0 0.0 0.00 0.00 0.00 76 1030.8
20260902043906 49 247 0.0 0.0 0.00 0.00 0.00 76 1030.9
20260902043806 49 247 0.0 0.0 0.00 0.00 0.00 76 1030.8
20260902043706 49 247 0.0 0.0 0.00 0.00 0.00 76 1030.8
20260902043606 49 247 0.0 0.0 0.00 0.00 0.00 76 1030.8
20260902043506 49 247 0.0 0.0 0.00 0.00 0.00 76 1030.8
20260902043406 49 247 0.0 0.0 0.00 0.00 0.00 76 1030.8
20260902043306 49 247 0.0 0.0 0.00 0.00 0.00 76 1030.8
20260902043206 49 247 0.0 0.0 0.00 0.00 0.00 76 1030.6
20260902043106 49 247 0.0 0.0 0.00 0.00 0.00 76 1030.6
20260902043006 49 247 0.0 0.0 0.00 0.00 0.00 76 1030.8
20260902042906 49 247 0.0 0.0 0.00 0.00 0.00 76 1030.9
20260902042806 49 247 0.0 0.0 0.00 0.00 0.00 76 1030.8
20260902042706 49 247 0.0 0.0 0.00 0.00 0.00 76 1030.6
20260902042606 49 247 0.0 0.0 0.00 0.00 0.00 76 1030.8
20260902042506 49 247 0.0 0.0 0.00 0.00 0.00 76 1030.6
20260902042406 49 247 0.0 0.0 0.00 0.00 0.00 76 1030.5
20260902042309 49 247 0.0 0.0 0.00 0.00 0.00 76 1030.6
20260902042206 49 247 0.0 0.0 0.00 0.00 0.00 76 1030.6
20260902042106 49 247 0.0 0.0 0.00 0.00 0.00 76 1030.5
20260902042006 49 247 0.0 0.0 0.00 0.00 0.00 76 1030.6
20260902041906 49 247 0.0 0.0 0.00 0.00 0.00 76 1030.6
20260902041806 49 247 0.0 0.0 0.00 0.00 0.00 76 1030.6
20260902041706 49 247 0.0 0.0 0.00 0.00 0.00 76 1030.6
20260902041606 49 247 0.0 0.0 0.00 0.00 0.00 76 1030.6
20260902041506 50 247 0.0 0.0 0.00 0.00 0.00 76 1030.8
20260902041406 49 247 0.0 0.0 0.00 0.00 0.00 76 1030.6
20260902041306 49 247 0.0 0.0 0.00 0.00 0.00 76 1030.6
20260902041206 49 247 0.0 0.0 0.00 0.00 0.00 76 1030.5
20260902041106 49 247 0.0 0.0 0.00 0.00 0.00 76 1030.5
20260902041006 49 247 0.0 0.0 0.00 0.00 0.00 76 1030.5
20260902040906 49 247 0.0 0.0 0.00 0.00 0.00 76 1030.5
20260902040806 49 247 0.0 0.0 0.00 0.00 0.00 76 1030.5
20260902040706 49 247 0.0 0.0 0.00 0.00 0.00 76 1030.5
20260902040606 49 247 0.0 0.0 0.00 0.00 0.00 76 1030.5
20260902040506 49 247 0.0 0.0 0.00 0.00 0.00 76 1030.5
20260902040406 49 247 0.0 0.0 0.00 0.00 0.00 76 1030.5
20260902040306 49 247 0.0 0.0 0.00 0.00 0.00 76 1030.5
20260902040206 49 247 0.0 0.0 0.00 0.00 0.00 76 1030.5
20260902040106 49 247 0.0 0.0 0.00 0.00 0.00 75 1030.6
20260902040006 50 247 0.0 0.0 0.00 0.00 0.00 75 1030.5
20260902035906 50 247 0.0 0.0 0.00 0.00 0.00 75 1030.6
20260902035806 50 247 0.0 0.0 0.00 0.00 0.00 75 1030.5
20260902035706 50 247 0.0 0.0 0.00 0.00 0.00 75 1030.6
20260902035606 50 247 0.0 0.0 0.00 0.00 0.00 75 1030.8
20260902035506 50 247 0.0 0.0 0.00 0.00 0.00 75 1030.6
20260902035406 50 247 0.0 0.0 0.00 0.00 0.00 75 1030.8
20260902035306 50 247 0.0 0.0 0.00 0.00 0.00 75 1030.8
20260902035206 50 247 0.0 0.0 0.00 0.00 0.00 75 1030.8
20260902035106 50 247 0.0 0.0 0.00 0.00 0.00 75 1030.8
20260902035006 50 247 0.0 0.0 0.00 0.00 0.00 75 1030.6
20260902034905 50 247 0.0 0.0 0.00 0.00 0.00 75 1030.6
20260902034806 50 247 0.0 0.0 0.00 0.00 0.00 75 1030.6
20260902034706 50 247 0.0 0.0 0.00 0.00 0.00 75 1030.6
20260902034606 50 247 0.0 0.0 0.00 0.00 0.00 75 1030.5
20260902034506 50 247 0.0 0.0 0.00 0.00 0.00 75 1030.5
20260902034406 50 247 0.0 0.0 0.00 0.00 0.00 75 1030.5
20260902034306 50 247 0.0 0.0 0.00 0.00 0.00 75 1030.5
20260902034206 50 247 0.0 0.0 0.00 0.00 0.00 75 1030.5
20260902034106 50 247 0.0 0.0 0.00 0.00 0.00 75 1030.6
20260902034006 50 247 0.0 0.0 0.00 0.00 0.00 75 1030.5
20260902033906 50 247 0.0 0.0 0.00 0.00 0.00 75 1030.5
20260902033806 50 247 0.0 0.0 0.00 0.00 0.00 75 1030.5
20260902033706 50 247 0.0 0.0 0.00 0.00 0.00 75 1030.6
20260902033606 50 247 0.0 0.0 0.00 0.00 0.00 75 1030.6
20260902033506 50 247 0.0 0.0 0.00 0.00 0.00 75 1030.5
20260902033406 50 247 0.0 0.0 0.00 0.00 0.00 75 1030.6
20260902033306 50 247 0.0 0.0 0.00 0.00 0.00 75 1030.5
20260902033206 50 247 0.0 0.0 0.00 0.00 0.00 75 1030.6
20260902033106 50 247 0.0 0.0 0.00 0.00 0.00 75 1030.5
20260902033006 50 247 0.0 0.0 0.00 0.00 0.00 75 1030.6
20260902032845 50 247 0.0 0.0 0.00 0.00 0.00 75 1030.5
20260902032806 50 247 0.0 0.0 0.00 0.00 0.00 75 1030.5
20260902032706 50 247 0.0 0.0 0.00 0.00 0.00 75 1030.6
20260902032606 50 247 0.0 0.0 0.00 0.00 0.00 75 1030.6
20260902032506 50 247 0.0 0.0 0.00 0.00 0.00 75 1030.6
20260902032406 50 247 0.0 0.0 0.00 0.00 0.00 75 1030.6
20260902032306 50 247 0.0 0.0 0.00 0.00 0.00 75 1030.8
20260902032206 50 247 0.0 0.0 0.00 0.00 0.00 75 1030.8
20260902032105 50 247 0.0 0.0 0.00 0.00 0.00 75 1030.9
20260902032006 50 247 0.0 0.0 0.00 0.00 0.00 75 1030.9
20260902031906 50 247 0.0 0.0 0.00 0.00 0.00 75 1030.9
20260902031806 50 247 0.0 0.0 0.00 0.00 0.00 75 1030.8
20260902031706 50 247 0.0 0.0 0.00 0.00 0.00 75 1030.9
20260902031606 50 247 0.0 0.0 0.00 0.00 0.00 75 1030.9
20260902031506 50 247 0.0 0.0 0.00 0.00 0.00 75 1030.9
20260902031406 50 247 0.0 0.0 0.00 0.00 0.00 74 1030.8
20260902031306 50 247 0.0 0.0 0.00 0.00 0.00 74 1030.9
20260902031206 50 247 0.0 0.0 0.00 0.00 0.00 74 1030.8
20260902031106 50 247 0.0 0.0 0.00 0.00 0.00 74 1030.9
20260902031006 50 247 0.0 0.0 0.00 0.00 0.00 74 1030.8
20260902030906 50 247 0.0 0.0 0.00 0.00 0.00 74 1030.8
20260902030806 50 247 0.0 0.0 0.00 0.00 0.00 74 1030.8
20260902030706 50 247 0.0 0.0 0.00 0.00 0.00 74 1030.8
20260902030605 50 247 0.0 0.0 0.00 0.00 0.00 74 1030.8
20260902030505 50 247 0.0 0.0 0.00 0.00 0.00 74 1030.8
20260902030406 50 247 0.0 0.0 0.00 0.00 0.00 74 1030.9
20260902030305 50 247 0.0 0.0 0.00 0.00 0.00 74 1030.9
20260902030205 50 247 0.0 0.0 0.00 0.00 0.00 74 1030.8
20260902030105 50 247 0.0 0.0 0.00 0.00 0.00 74 1030.6
20260902030005 50 247 0.0 0.0 0.00 0.00 0.00 74 1030.6
20260902025905 50 247 0.0 0.0 0.00 0.00 0.00 74 1030.8
20260902025806 50 247 0.0 0.0 0.00 0.00 0.00 74 1030.6
20260902025705 50 247 0.0 0.0 0.00 0.00 0.00 74 1030.6
20260902025606 50 247 0.0 0.0 0.00 0.00 0.00 74 1030.6
20260902025506 50 247 0.0 0.0 0.00 0.00 0.00 74 1030.6
20260902025405 50 247 0.0 0.0 0.00 0.00 0.00 74 1030.6
20260902025306 50 247 0.0 0.0 0.00 0.00 0.00 74 1030.6
20260902025205 50 247 0.0 0.0 0.00 0.00 0.00 74 1030.6
20260902025105 50 247 0.0 0.0 0.00 0.00 0.00 74 1030.6
20260902025005 50 247 0.0 0.0 0.00 0.00 0.00 74 1030.6
20260902024906 50 247 0.0 0.0 0.00 0.00 0.00 74 1030.5
20260902024806 50 247 0.0 0.0 0.00 0.00 0.00 74 1030.6
20260902024706 50 247 0.0 0.0 0.00 0.00 0.00 74 1030.5
20260902024606 50 247 0.0 0.0 0.00 0.00 0.00 74 1030.6
20260902024506 50 247 0.0 0.0 0.00 0.00 0.00 74 1030.8
20260902024405 50 247 0.0 0.0 0.00 0.00 0.00 74 1030.6
20260902024306 50 247 0.0 0.0 0.00 0.00 0.00 74 1030.6
20260902024206 50 247 0.0 0.0 0.00 0.00 0.00 74 1030.6
20260902024106 50 247 0.0 0.0 0.00 0.00 0.00 74 1030.8
20260902024006 50 247 0.0 0.0 0.00 0.00 0.00 74 1030.8
20260902023905 50 247 0.0 0.0 0.00 0.00 0.00 74 1030.6
20260902023805 50 247 0.0 0.0 0.00 0.00 0.00 74 1030.8
20260902023705 50 247 0.0 0.0 0.00 0.00 0.00 74 1030.6
20260902023606 50 247 0.0 0.0 0.00 0.00 0.00 74 1030.8
20260902023505 50 247 0.0 0.0 0.00 0.00 0.00 74 1030.8
20260902023405 50 247 0.0 0.0 0.00 0.00 0.00 74 1030.8
20260902023305 51 247 0.0 0.0 0.00 0.00 0.00 74 1030.8
20260902023205 50 247 0.0 0.0 0.00 0.00 0.00 74 1030.9
20260902023105 51 247 0.0 0.0 0.00 0.00 0.00 74 1030.9
20260902023005 51 247 0.0 0.0 0.00 0.00 0.00 74 1030.8
20260902022906 51 247 0.0 0.0 0.00 0.00 0.00 74 1030.8
20260902022805 51 247 0.0 0.0 0.00 0.00 0.00 74 1030.6
20260902022705 51 247 0.0 0.0 0.00 0.00 0.00 74 1030.8
20260902022605 51 247 0.0 0.0 0.00 0.00 0.00 74 1030.8
20260902022505 51 247 0.0 0.0 0.00 0.00 0.00 74 1030.6
20260902022405 51 247 0.0 0.0 0.00 0.00 0.00 74 1030.6
20260902022306 51 247 0.0 0.0 0.00 0.00 0.00 74 1030.6
20260902022205 51 247 0.0 0.0 0.00 0.00 0.00 74 1030.6
20260902022105 51 247 0.0 0.0 0.00 0.00 0.00 74 1030.6
20260902022005 51 247 0.0 0.0 0.00 0.00 0.00 74 1030.6
20260902021905 51 247 0.0 0.0 0.00 0.00 0.00 74 1030.6
20260902021805 51 247 0.0 0.0 0.00 0.00 0.00 74 1030.5
20260902021705 51 247 0.0 0.0 0.00 0.00 0.00 74 1030.6
20260902021605 51 247 0.0 0.0 0.00 0.00 0.00 74 1030.8
20260902021505 51 247 0.0 0.0 0.00 0.00 0.00 74 1030.6
20260902021405 51 247 0.0 0.0 0.00 0.00 0.00 74 1030.8
20260902021305 51 247 0.0 0.0 0.00 0.00 0.00 74 1030.6
20260902021205 51 247 0.0 0.0 0.00 0.00 0.00 74 1030.8
20260902021105 51 247 0.0 0.0 0.00 0.00 0.00 74 1030.6
20260902021005 51 247 0.0 0.0 0.00 0.00 0.00 74 1030.6
20260902020905 51 247 0.0 0.0 0.00 0.00 0.00 74 1030.8
20260902020805 51 247 0.0 0.0 0.00 0.00 0.00 74 1030.6
20260902020705 51 247 0.0 0.0 0.00 0.00 0.00 74 1030.6
20260902020605 51 247 0.0 0.0 0.00 0.00 0.00 74 1030.6
20260902020505 51 247 0.0 0.0 0.00 0.00 0.00 74 1030.6
20260902020405 51 247 0.0 0.0 0.00 0.00 0.00 74 1030.5
20260902020305 51 247 0.0 0.0 0.00 0.00 0.00 74 1030.6
20260902020205 51 247 0.0 0.0 0.00 0.00 0.00 74 1030.6
20260902020105 51 247 0.0 0.0 0.00 0.00 0.00 74 1030.6
20260902020005 51 247 0.0 0.0 0.00 0.00 0.00 73 1030.6
20260902015845 51 247 0.0 0.0 0.00 0.00 0.00 73 1030.5
20260902015805 51 247 0.0 0.0 0.00 0.00 0.00 73 1030.5
20260902015705 51 247 0.0 0.0 0.00 0.00 0.00 73 1030.5
20260902015605 51 247 0.0 0.0 0.00 0.00 0.00 73 1030.6
20260902015505 51 247 0.0 0.0 0.00 0.00 0.00 73 1030.6
20260902015405 51 247 0.0 0.0 0.00 0.00 0.00 73 1030.5
20260902015306 51 247 0.0 0.0 0.00 0.00 0.00 73 1030.5
20260902015205 51 247 0.0 0.0 0.00 0.00 0.00 73 1030.6
20260902015105 51 247 0.0 0.0 0.00 0.00 0.00 73 1030.6
20260902015005 51 247 0.0 0.0 0.00 0.00 0.00 73 1030.6
20260902014905 51 247 0.0 0.0 0.00 0.00 0.00 73 1030.8
20260902014805 51 247 0.0 0.0 0.00 0.00 0.00 73 1030.6
20260902014705 51 247 0.0 0.0 0.00 0.00 0.00 73 1030.8
20260902014605 51 247 0.0 0.0 0.00 0.00 0.00 73 1030.8
20260902014505 51 247 0.0 0.0 0.00 0.00 0.00 73 1030.8
20260902014405 51 247 0.0 0.0 0.00 0.00 0.00 73 1030.8
20260902014305 51 247 0.0 0.0 0.00 0.00 0.00 73 1030.8
20260902014205 51 247 0.0 0.0 0.00 0.00 0.00 73 1030.8
20260902014105 51 247 0.0 0.0 0.00 0.00 0.00 73 1030.8
20260902014005 51 247 0.0 0.0 0.00 0.00 0.00 73 1030.9
20260902013905 51 247 0.0 0.0 0.00 0.00 0.00 73 1030.8
20260902013805 51 247 0.0 0.0 0.00 0.00 0.00 73 1030.8
20260902013705 51 247 0.0 0.0 0.00 0.00 0.00 73 1030.8
20260902013605 51 247 0.0 0.0 0.00 0.00 0.00 73 1030.9
20260902013505 51 247 0.0 0.0 0.00 0.00 0.00 73 1030.8
20260902013405 51 247 0.0 0.0 0.00 0.00 0.00 73 1030.8
20260902013305 51 247 0.0 0.0 0.00 0.00 0.00 73 1030.8
20260902013205 51 247 0.0 0.0 0.00 0.00 0.00 73 1030.8
20260902013105 51 247 0.0 0.0 0.00 0.00 0.00 73 1030.9
20260902013005 51 247 0.0 0.0 0.00 0.00 0.00 73 1030.8
20260902012905 51 247 0.0 0.0 0.00 0.00 0.00 73 1030.9
20260902012805 51 247 0.0 0.0 0.00 0.00 0.00 73 1031.0
20260902012705 51 247 0.0 0.0 0.00 0.00 0.00 73 1030.9
20260902012605 51 247 0.0 0.0 0.00 0.00 0.00 73 1030.9
20260902012505 51 247 0.0 0.0 0.00 0.00 0.00 73 1030.9
20260902012405 51 247 0.0 0.0 0.00 0.00 0.00 73 1030.9
20260902012309 51 247 0.0 0.0 0.00 0.00 0.00 73 1030.9
20260902012205 51 247 0.0 0.0 0.00 0.00 0.00 73 1030.9
20260902012105 51 247 0.0 0.0 0.00 0.00 0.00 73 1030.9
20260902012005 51 247 0.0 0.0 0.00 0.00 0.00 73 1030.9
20260902011905 51 247 0.0 0.0 0.00 0.00 0.00 73 1030.9
20260902011805 51 247 0.0 0.0 0.00 0.00 0.00 73 1030.8
20260902011705 51 247 0.0 0.0 0.00 0.00 0.00 73 1030.9
20260902011605 51 247 0.0 0.0 0.00 0.00 0.00 73 1030.8
20260902011505 51 247 0.0 0.0 0.00 0.00 0.00 73 1030.8
20260902011405 52 247 0.0 0.0 0.00 0.00 0.00 73 1030.8
20260902011305 52 247 0.0 0.0 0.00 0.00 0.00 73 1030.8
20260902011205 52 247 0.0 0.0 0.00 0.00 0.00 73 1030.8
20260902011105 52 247 0.0 0.0 0.00 0.00 0.00 73 1030.8
20260902011005 52 247 0.0 0.0 0.00 0.00 0.00 72 1030.8
20260902010905 52 247 0.0 0.0 0.00 0.00 0.00 72 1030.9
20260902010805 52 247 0.0 0.0 0.00 0.00 0.00 72 1030.8
20260902010705 52 247 0.0 0.0 0.00 0.00 0.00 72 1030.9
20260902010605 52 247 0.0 0.0 0.00 0.00 0.00 72 1030.8
20260902010505 52 247 0.0 0.0 0.00 0.00 0.00 72 1030.8
20260902010405 52 247 0.0 0.0 0.00 0.00 0.00 72 1030.8
20260902010306 52 247 0.0 0.0 0.00 0.00 0.00 72 1030.8
20260902010205 52 247 0.0 0.0 0.00 0.00 0.00 72 1030.8
20260902010105 52 247 0.0 0.0 0.00 0.00 0.00 72 1030.8
20260902010005 52 247 0.0 0.0 0.00 0.00 0.00 72 1030.8
20260902005845 52 247 0.0 0.0 0.00 0.00 0.00 72 1030.9
20260902005805 52 247 0.0 0.0 0.00 0.00 0.00 72 1030.9
20260902005705 52 247 0.0 0.0 0.00 0.00 0.00 72 1030.9
20260902005605 52 247 0.0 0.0 0.00 0.00 0.00 72 1031.0
20260902005505 52 247 0.0 0.0 0.00 0.00 0.00 72 1031.0
20260902005405 52 247 0.0 0.0 0.00 0.00 0.00 72 1031.0
20260902005306 52 247 0.0 0.0 0.00 0.00 0.00 72 1031.0
20260902005205 52 247 0.0 0.0 0.00 0.00 0.00 72 1031.0
20260902005105 52 247 0.0 0.0 0.00 0.00 0.00 72 1031.0
20260902005005 52 247 0.0 0.0 0.00 0.00 0.00 72 1031.0
20260902004905 52 247 0.0 0.0 0.00 0.00 0.00 72 1031.0
20260902004805 52 247 0.0 0.0 0.00 0.00 0.00 72 1031.0
20260902004705 52 247 0.0 0.0 0.00 0.00 0.00 72 1031.0
20260902004605 52 247 0.0 0.0 0.00 0.00 0.00 72 1031.0
20260902004505 52 247 0.0 0.0 0.00 0.00 0.00 72 1031.0
20260902004405 52 247 0.0 0.0 0.00 0.00 0.00 72 1031.0
20260902004305 52 247 0.0 0.0 0.00 0.00 0.00 72 1031.0
20260902004205 52 247 0.0 0.0 0.00 0.00 0.00 72 1031.0
20260902004105 52 247 0.0 0.0 0.00 0.00 0.00 72 1031.0
20260902004005 52 247 0.0 0.0 0.00 0.00 0.00 72 1031.0
20260902003905 52 247 0.0 0.0 0.00 0.00 0.00 72 1031.0
20260902003805 52 247 0.0 0.0 0.00 0.00 0.00 72 1031.0
20260902003705 52 247 0.0 0.0 0.00 0.00 0.00 72 1031.0
20260902003605 52 247 0.0 0.0 0.00 0.00 0.00 72 1031.0
20260902003505 52 247 0.0 0.0 0.00 0.00 0.00 72 1031.0
20260902003405 52 247 0.0 0.0 0.00 0.00 0.00 72 1031.0
20260902003305 52 247 0.0 0.0 0.00 0.00 0.00 71 1031.0
20260902003205 52 247 0.0 0.0 0.00 0.00 0.00 71 1030.9
20260902003105 52 247 0.0 0.0 0.00 0.00 0.00 71 1031.0
20260902003005 52 247 0.0 0.0 0.00 0.00 0.00 71 1031.0
20260902002905 52 247 0.0 0.0 0.00 0.00 0.00 71 1031.0
20260902002805 52 247 0.0 0.0 0.00 0.00 0.00 71 1031.0
20260902002705 53 247 0.0 0.0 0.00 0.00 0.00 71 1031.0
20260902002605 53 247 0.0 0.0 0.00 0.00 0.00 71 1031.0
20260902002505 53 247 0.0 0.0 0.00 0.00 0.00 71 1031.0
20260902002405 53 247 0.0 0.0 0.00 0.00 0.00 71 1031.0
20260902002306 53 247 0.0 0.0 0.00 0.00 0.00 71 1031.0
20260902002205 53 247 0.0 0.0 0.00 0.00 0.00 71 1031.0
20260902002105 53 247 0.0 0.0 0.00 0.00 0.00 71 1031.0
20260902002005 53 247 0.0 0.0 0.00 0.00 0.00 71 1031.0
20260902001905 53 247 0.0 0.0 0.00 0.00 0.00 71 1031.0
20260902001805 53 247 0.0 0.0 0.00 0.00 0.00 71 1031.0
20260902001705 53 247 0.0 0.0 0.00 0.00 0.00 71 1031.0
20260902001605 53 247 0.0 0.0 0.00 0.00 0.00 71 1031.0
20260902001505 53 247 0.0 0.0 0.00 0.00 0.00 71 1031.0
20260902001405 53 247 0.0 0.0 0.00 0.00 0.00 71 1031.0
20260902001305 53 247 0.0 0.0 0.00 0.00 0.00 71 1031.0
20260902001205 53 247 0.0 0.0 0.00 0.00 0.00 71 1031.0
20260902001105 53 247 0.0 0.0 0.00 0.00 0.00 71 1031.0
20260902001005 53 247 0.0 0.0 0.00 0.00 0.00 71 1031.0
20260902000905 53 247 0.0 0.0 0.00 0.00 0.00 71 1031.0
20260902000805 53 247 0.0 0.0 0.00 0.00 0.00 71 1031.0
20260902000705 53 247 0.0 0.0 0.00 0.00 0.00 71 1031.0
20260902000605 53 247 0.0 0.0 0.00 0.00 0.00 71 1031.0
20260902000505 53 247 0.0 0.0 0.00 0.00 0.00 71 1031.0
20260902000406 53 247 0.0 0.0 0.00 0.00 0.00 71 1031.0
20260902000305 53 247 0.0 0.0 0.00 0.00 0.00 71 1031.0
20260902000205 53 247 0.0 0.0 0.00 0.00 0.00 71 1031.0
20260902000105 53 247 0.0 0.0 0.00 0.00 0.00 71 1031.0
20260902000005 53 247 0.0 0.0 0.00 0.00 0.00 71 1031.0
20260901235905 53 247 0.0 0.0 0.00 0.00 0.00 71 1031.0
20260901235805 53 247 0.0 0.0 0.00 0.00 0.00 71 1031.0
20260901235705 53 247 0.0 0.0 0.00 0.00 0.00 71 1031.0
20260901235605 53 247 0.0 0.0 0.00 0.00 0.00 71 1031.0
20260901235505 53 247 0.0 0.0 0.00 0.00 0.00 71 1031.1
20260901235405 53 247 0.0 0.0 0.00 0.00 0.00 71 1031.0
20260901235307 53 247 0.0 0.0 0.00 0.00 0.00 71 1031.0
20260901235205 53 247 0.0 0.0 0.00 0.00 0.00 71 1031.0
20260901235105 53 247 0.0 0.0 0.00 0.00 0.00 71 1031.0
20260901235005 53 247 0.0 0.0 0.00 0.00 0.00 71 1031.0
20260901234905 53 247 0.0 0.0 0.00 0.00 0.00 71 1031.1
20260901234805 53 247 0.0 0.0 0.00 0.00 0.00 71 1031.0
20260901234705 53 247 0.0 0.0 0.00 0.00 0.00 71 1031.1
20260901234605 53 247 0.0 0.0 0.00 0.00 0.00 71 1031.0
20260901234505 53 247 0.0 0.0 0.00 0.00 0.00 71 1031.0
20260901234405 53 247 0.0 0.0 0.00 0.00 0.00 71 1031.0
20260901234305 53 247 0.0 0.0 0.00 0.00 0.00 71 1031.1
20260901234205 53 247 0.0 0.0 0.00 0.00 0.00 71 1031.0
20260901234105 53 247 0.0 0.0 0.00 0.00 0.00 70 1031.0
20260901234005 53 247 0.0 0.0 0.00 0.00 0.00 70 1031.1
20260901233905 53 247 0.0 0.0 0.00 0.00 0.00 70 1031.0
20260901233805 53 247 0.0 0.0 0.00 0.00 0.00 70 1031.0
20260901233705 53 247 0.0 0.0 0.00 0.00 0.00 70 1031.0
20260901233605 54 247 0.0 0.0 0.00 0.00 0.00 70 1031.0
20260901233505 54 247 0.0 0.0 0.00 0.00 0.00 70 1031.0
20260901233405 54 247 0.0 0.0 0.00 0.00 0.00 70 1031.0
20260901233305 54 247 0.0 0.0 0.00 0.00 0.00 70 1031.1
20260901233205 54 247 0.0 0.0 0.00 0.00 0.00 70 1031.0
20260901233105 54 247 0.0 0.0 0.00 0.00 0.00 70 1031.0
20260901233005 54 247 0.0 0.0 0.00 0.00 0.00 70 1031.0
20260901232905 54 247 0.0 0.0 0.00 0.00 0.00 70 1031.0
20260901232805 54 247 0.0 0.0 0.00 0.00 0.00 70 1031.0
20260901232705 54 247 0.0 0.0 0.00 0.00 0.00 70 1031.0
20260901232605 54 247 0.0 0.0 0.00 0.00 0.00 70 1031.0
20260901232505 54 247 0.0 0.0 0.00 0.00 0.00 70 1031.0
20260901232405 54 247 0.0 0.0 0.00 0.00 0.00 70 1031.0
20260901232306 54 247 0.0 0.0 0.00 0.00 0.00 70 1031.0
20260901232205 54 247 0.0 0.0 0.00 0.00 0.00 70 1031.1
20260901232105 54 247 0.0 0.0 0.00 0.00 0.00 70 1031.0
20260901232005 54 247 0.0 0.0 0.00 0.00 0.00 70 1031.0
20260901231905 54 247 0.0 0.0 0.00 0.00 0.00 70 1031.0
20260901231805 54 247 0.0 0.0 0.00 0.00 0.00 70 1031.1
20260901231705 54 247 0.0 0.0 0.00 0.00 0.00 70 1031.1
20260901231605 54 247 0.0 0.0 0.00 0.00 0.00 70 1031.0
20260901231505 54 247 0.0 0.0 0.00 0.00 0.00 70 1031.1
20260901231405 54 247 0.0 0.0 0.00 0.00 0.00 70 1031.1
20260901231305 54 247 0.0 0.0 0.00 0.00 0.00 70 1031.1
20260901231205 54 247 0.0 0.0 0.00 0.00 0.00 70 1031.1
20260901231105 54 247 183.0 0.0 0.00 0.00 0.00 70 1031.1
20260901231005 54 247 0.0 0.0 0.00 0.00 0.00 70 1031.1
20260901230905 54 247 0.0 0.0 0.00 0.00 0.00 70 1031.1
20260901230805 54 247 0.0 0.0 0.00 0.00 0.00 70 1031.1
20260901230705 54 247 0.0 0.0 0.00 0.00 0.00 69 1031.1
20260901230605 54 247 0.0 0.0 0.00 0.00 0.00 69 1031.1
20260901230505 54 247 0.0 0.0 0.00 0.00 0.00 69 1031.0
20260901230405 54 247 0.0 0.0 0.00 0.00 0.00 69 1031.1
20260901230305 54 247 0.0 0.0 0.00 0.00 0.00 69 1031.1
20260901230205 54 247 0.0 0.0 0.00 0.00 0.00 69 1031.1
20260901230105 54 247 0.0 0.0 0.00 0.00 0.00 69 1031.1
20260901230005 54 247 0.0 0.0 0.00 0.00 0.00 69 1031.1
20260901225905 54 247 0.0 0.0 0.00 0.00 0.00 69 1031.3
20260901225805 55 247 0.0 0.0 0.00 0.00 0.00 69 1031.1
20260901225705 54 247 0.0 0.0 0.00 0.00 0.00 69 1031.3
20260901225605 55 247 0.0 0.0 0.00 0.00 0.00 69 1031.1
20260901225505 55 247 0.0 0.0 0.00 0.00 0.00 69 1031.1
20260901225405 55 247 0.0 0.0 0.00 0.00 0.00 69 1031.3
20260901225306 55 247 0.0 0.0 0.00 0.00 0.00 69 1031.1
20260901225205 55 247 0.0 0.0 0.00 0.00 0.00 69 1031.3
20260901225105 55 247 0.0 0.0 0.00 0.00 0.00 69 1031.3
20260901225005 55 247 0.0 0.0 0.00 0.00 0.00 69 1031.3
20260901224905 55 247 0.0 0.0 0.00 0.00 0.00 69 1031.3
20260901224805 55 247 0.0 0.0 0.00 0.00 0.00 69 1031.3
20260901224705 55 247 0.0 0.0 0.00 0.00 0.00 69 1031.3
20260901224605 55 247 0.0 0.0 0.00 0.00 0.00 69 1031.3
20260901224505 55 247 0.0 0.0 0.00 0.00 0.00 69 1031.3
20260901224405 55 247 0.0 0.0 0.00 0.00 0.00 69 1031.3
20260901224305 55 247 0.0 0.0 0.00 0.00 0.00 69 1031.1
20260901224205 55 247 0.0 0.0 0.00 0.00 0.00 69 1031.1
20260901224105 55 247 0.0 0.0 0.00 0.00 0.00 69 1031.1
20260901224005 55 247 0.0 0.0 0.00 0.00 0.00 69 1031.1
20260901223905 55 247 0.0 0.0 0.00 0.00 0.00 69 1031.3
20260901223805 55 247 0.0 0.0 0.00 0.00 0.00 69 1031.3
20260901223705 55 247 0.0 0.0 0.00 0.00 0.00 69 1031.3
20260901223605 55 247 0.0 0.0 0.00 0.00 0.00 69 1031.3
20260901223505 55 247 0.0 0.0 0.00 0.00 0.00 69 1031.4
20260901223405 55 247 0.0 0.0 0.00 0.00 0.00 69 1031.3
20260901223305 55 247 0.0 0.0 0.00 0.00 0.00 69 1031.3
20260901223205 55 247 0.0 0.0 0.00 0.00 0.00 69 1031.3
20260901223105 55 247 0.0 0.0 0.00 0.00 0.00 69 1031.4
20260901223006 55 247 0.0 0.0 0.00 0.00 0.00 69 1031.4
20260901222905 55 247 0.0 0.0 0.00 0.00 0.00 69 1031.3
20260901222805 55 247 0.0 0.0 0.00 0.00 0.00 69 1031.4
20260901222705 55 247 0.0 0.0 0.00 0.00 0.00 69 1031.5
20260901222605 55 247 0.0 0.0 0.00 0.00 0.00 69 1031.4
20260901222505 55 247 0.0 0.0 0.00 0.00 0.00 68 1031.3
20260901222405 55 247 0.0 0.0 0.00 0.00 0.00 68 1031.4
20260901222306 55 247 0.0 0.0 0.00 0.00 0.00 68 1031.3
20260901222205 55 247 0.0 0.0 0.00 0.00 0.00 68 1031.3
20260901222105 55 247 0.0 0.0 0.00 0.00 0.00 68 1031.4
20260901222005 55 247 0.0 0.0 0.00 0.00 0.00 68 1031.4
20260901221905 55 247 0.0 0.0 0.00 0.00 0.00 68 1031.3
20260901221805 55 247 0.0 0.0 0.00 0.00 0.00 68 1031.3
20260901221705 55 247 0.0 0.0 0.00 0.00 0.00 68 1031.3
20260901221605 55 247 0.0 0.0 0.00 0.00 0.00 68 1031.3
20260901221505 55 247 0.0 0.0 0.00 0.00 0.00 68 1031.4
20260901221405 55 247 0.0 0.0 0.00 0.00 0.00 68 1031.3
20260901221305 55 247 0.0 0.0 0.00 0.00 0.00 68 1031.3
20260901221205 55 247 0.0 0.0 0.00 0.00 0.00 68 1031.4
20260901221105 55 247 0.0 0.0 0.00 0.00 0.00 68 1031.3
20260901221005 55 247 0.0 0.0 0.00 0.00 0.00 68 1031.3
20260901220905 55 247 0.0 0.0 0.00 0.00 0.00 68 1031.3
20260901220805 55 247 0.0 0.0 0.00 0.00 0.00 68 1031.3
20260901220705 55 247 0.0 0.0 0.00 0.00 0.00 68 1031.3
20260901220605 55 247 0.0 0.0 0.00 0.00 0.00 68 1031.3
20260901220505 55 247 0.0 0.0 0.00 0.00 0.00 68 1031.1
20260901220405 55 247 0.0 0.0 0.00 0.00 0.00 68 1031.1
20260901220305 55 247 0.0 0.0 0.00 0.00 0.00 67 1031.3
20260901220205 55 247 0.0 0.0 0.00 0.00 0.00 67 1031.3
20260901220105 55 247 0.0 0.0 0.00 0.00 0.00 67 1031.1
20260901220005 55 247 0.0 0.0 0.00 0.00 0.00 67 1031.1
20260901215905 55 247 0.0 0.0 0.00 0.00 0.00 67 1031.1
20260901215805 56 247 0.0 0.0 0.00 0.00 0.00 67 1031.1
20260901215705 56 247 0.0 0.0 0.00 0.00 0.00 67 1031.1
20260901215605 56 247 0.0 0.0 0.00 0.00 0.00 67 1031.1
20260901215505 56 247 0.0 0.0 0.00 0.00 0.00 67 1031.1
20260901215405 55 247 0.0 0.0 0.00 0.00 0.00 67 1031.1
20260901215306 56 247 0.0 0.0 0.00 0.00 0.00 67 1031.1
20260901215205 56 247 0.0 0.0 0.00 0.00 0.00 67 1031.1
20260901215105 56 247 0.0 0.0 0.00 0.00 0.00 67 1031.3
20260901215005 56 247 0.0 0.0 0.00 0.00 0.00 67 1031.3
20260901214905 56 247 0.0 0.0 0.00 0.00 0.00 67 1031.1
20260901214805 56 247 0.0 0.0 0.00 0.00 0.00 67 1031.4
20260901214705 56 247 0.0 0.0 0.00 0.00 0.00 67 1031.4
20260901214605 56 247 0.0 0.0 0.00 0.00 0.00 67 1031.4
20260901214505 56 247 0.0 0.0 0.00 0.00 0.00 67 1031.4
20260901214405 56 247 0.0 0.0 0.00 0.00 0.00 67 1031.5
20260901214305 56 247 0.0 0.0 0.00 0.00 0.00 67 1031.3
20260901214205 56 247 0.0 0.0 0.00 0.00 0.00 67 1031.4
20260901214105 56 247 0.0 0.0 0.00 0.00 0.00 67 1031.4
20260901214005 56 247 0.0 0.0 0.00 0.00 0.00 67 1031.5
20260901213905 56 247 0.0 0.0 0.00 0.00 0.00 67 1031.3
20260901213805 56 247 0.0 0.0 0.00 0.00 0.00 67 1031.4
20260901213705 56 247 0.0 0.0 0.00 0.00 0.00 67 1031.4
20260901213605 56 247 0.0 0.0 0.00 0.00 0.00 67 1031.4
20260901213505 56 247 0.0 0.0 0.00 0.00 0.00 67 1031.4
20260901213405 56 247 0.0 0.0 0.00 0.00 0.00 67 1031.3
20260901213305 56 247 0.0 0.0 0.00 0.00 0.00 67 1031.3
20260901213205 56 247 0.0 0.0 0.00 0.00 0.00 67 1031.3
20260901213105 56 247 0.0 0.0 0.00 0.00 0.00 67 1031.4
20260901213005 56 247 0.0 0.0 0.00 0.00 0.00 67 1031.4
20260901212905 56 247 0.0 0.0 0.00 0.00 0.00 67 1031.1
20260901212805 56 247 0.0 0.0 0.00 0.00 0.00 66 1031.3
20260901212705 56 247 0.0 0.0 0.00 0.00 0.00 66 1031.3
20260901212605 56 247 0.0 0.0 0.00 0.00 0.00 66 1031.3
20260901212505 56 247 0.0 0.0 0.00 0.00 0.00 66 1031.3
20260901212405 56 247 0.0 0.0 0.00 0.00 0.00 66 1031.3
20260901212306 57 247 0.0 0.0 0.00 0.00 0.00 90 1031.1
20260901212205 57 247 0.0 0.0 0.00 0.00 0.00 66 1031.1
20260901212105 57 247 0.0 0.0 0.00 0.00 0.00 66 1031.1
20260901212005 57 247 0.0 0.0 0.00 0.00 0.00 66 1031.1
20260901211905 57 247 0.0 0.0 0.00 0.00 0.00 66 1031.1
20260901211805 57 247 0.0 0.0 0.00 0.00 0.00 66 1031.1
20260901211705 57 247 0.0 0.0 0.00 0.00 0.00 66 1031.1
20260901211605 57 247 0.0 0.0 0.00 0.00 0.00 66 1031.3
20260901211505 57 247 0.0 0.0 0.00 0.00 0.00 66 1031.1
20260901211405 57 247 0.0 0.0 0.00 0.00 0.00 66 1031.1
20260901211305 57 247 0.0 0.0 0.00 0.00 0.00 66 1031.1
20260901211205 57 247 0.0 0.0 0.00 0.00 0.00 66 1031.1
20260901211105 57 247 0.0 0.0 0.00 0.00 0.00 66 1031.3
20260901211005 57 247 0.0 0.0 0.00 0.00 0.00 66 1031.3
20260901210905 57 247 0.0 0.0 0.00 0.00 0.00 66 1031.1
20260901210805 57 247 0.0 0.0 0.00 0.00 0.00 65 1031.1
20260901210705 57 247 0.0 0.0 0.00 0.00 0.00 65 1031.3
20260901210605 57 247 0.0 0.0 0.00 0.00 0.00 65 1031.1
20260901210505 57 247 0.0 0.0 0.00 0.00 0.00 65 1031.1
20260901210405 57 247 0.0 0.0 0.00 0.00 0.00 65 1031.1
20260901210305 57 247 0.0 0.0 0.00 0.00 0.00 65 1031.1
20260901210205 57 247 0.0 0.0 0.00 0.00 0.00 65 1031.3
20260901210105 57 247 0.0 0.0 0.00 0.00 0.00 65 1031.1
20260901210005 57 247 0.0 0.0 0.00 0.00 0.00 65 1031.1
20260901205905 57 247 0.0 0.0 0.00 0.00 0.00 65 1031.1
20260901205805 57 247 0.0 0.0 0.00 0.00 0.00 65 1031.1
20260901205705 57 247 0.0 0.0 0.00 0.00 0.00 65 1031.1
20260901205605 57 247 0.0 0.0 0.00 0.00 0.00 65 1031.1
20260901205505 57 247 0.0 0.0 0.00 0.00 0.00 65 1031.3
20260901205405 57 247 0.0 0.0 0.00 0.00 0.00 65 1031.1
20260901205306 57 247 0.0 0.0 0.00 0.00 0.00 65 1031.3
20260901205205 57 247 0.0 0.0 0.00 0.00 0.00 65 1031.3
20260901205105 57 247 0.0 0.0 0.00 0.00 0.00 65 1031.3
20260901205005 58 247 0.0 0.0 0.00 0.00 0.00 65 1031.1
20260901204905 58 247 0.0 0.0 0.00 0.00 0.00 65 1031.1
20260901204805 58 247 0.0 0.0 0.00 0.00 0.00 65 1031.1
20260901204705 58 247 0.0 0.0 0.00 0.00 0.00 64 1031.1
20260901204605 58 247 0.0 0.0 0.00 0.00 0.00 64 1031.3
20260901204505 58 247 0.0 0.0 0.00 0.00 0.00 64 1031.1
20260901204405 58 247 183.0 0.0 0.00 0.00 0.00 64 1031.1
20260901204305 58 247 0.0 0.0 0.00 0.00 0.00 64 1031.1
20260901204205 58 247 0.0 0.0 0.00 0.00 0.00 64 1031.1
20260901204105 58 247 0.0 0.0 0.00 0.00 0.00 64 1031.1
20260901204005 58 247 0.0 0.0 0.00 0.00 0.00 64 1031.0
20260901203905 58 247 0.0 0.0 0.00 0.00 0.00 64 1031.0
20260901203805 58 247 0.0 0.0 0.00 0.00 0.00 64 1031.0
20260901203705 58 247 0.0 0.0 0.00 0.00 0.00 64 1031.1
20260901203605 58 247 0.0 0.0 0.00 0.00 0.00 64 1031.0
20260901203505 58 247 0.0 0.0 0.00 0.00 0.00 64 1031.0
20260901203405 58 247 0.0 0.0 0.00 0.00 0.00 64 1031.0
20260901203305 58 247 0.0 0.0 0.00 0.00 0.00 64 1031.0
20260901203205 58 247 0.0 0.0 0.00 0.00 0.00 64 1031.0
20260901203105 58 247 0.0 0.0 0.00 0.00 0.00 64 1031.0
20260901203005 58 247 0.0 0.0 0.00 0.00 0.00 64 1031.0
20260901202905 58 247 0.0 0.0 0.00 0.00 0.00 64 1031.0
20260901202805 58 247 0.0 0.0 0.00 0.00 0.00 64 1031.0
20260901202705 58 247 0.0 0.0 0.00 0.00 0.00 64 1031.0
20260901202605 58 247 0.0 0.0 0.00 0.00 0.00 64 1031.0
20260901202505 58 247 0.0 0.0 0.00 0.00 0.00 64 1031.0
20260901202405 58 247 0.0 0.0 0.00 0.00 0.00 64 1031.0
20260901202306 58 247 0.0 0.0 0.00 0.00 0.00 64 1031.0
20260901202205 58 247 0.0 0.0 0.00 0.00 0.00 63 1031.0
20260901202105 58 247 0.0 0.0 0.00 0.00 0.00 63 1031.0
20260901202005 58 247 0.0 0.0 0.00 0.00 0.00 63 1031.0
20260901201905 58 247 0.0 0.0 0.00 0.00 0.00 63 1031.0
20260901201805 58 247 0.0 0.0 0.00 0.00 0.00 63 1031.0
20260901201705 58 247 0.0 0.0 0.00 0.00 0.00 63 1031.0
20260901201605 59 247 0.0 0.0 0.00 0.00 0.00 63 1031.0
20260901201505 59 247 0.0 0.0 0.00 0.00 0.00 63 1031.0
20260901201405 59 247 0.0 0.0 0.00 0.00 0.00 63 1031.0
20260901201305 59 247 0.0 0.0 0.00 0.00 0.00 63 1031.0
20260901201205 59 247 0.0 0.0 0.00 0.00 0.00 63 1031.0
20260901201105 59 247 0.0 0.0 0.00 0.00 0.00 63 1031.0
20260901201005 59 247 0.0 0.0 0.00 0.00 0.00 63 1031.0
20260901200905 59 247 0.0 0.0 0.00 0.00 0.00 63 1031.0
20260901200805 59 247 0.0 0.0 0.00 0.00 0.00 63 1031.0
20260901200705 59 247 0.0 0.0 0.00 0.00 0.00 62 1031.1
20260901200605 59 247 0.0 0.0 0.00 0.00 0.00 62 1031.1
20260901200505 59 247 0.0 0.0 0.00 0.00 0.00 62 1031.0
20260901200405 59 247 0.0 0.0 0.00 0.00 0.00 62 1031.0
20260901200305 59 247 0.0 0.0 0.00 0.00 0.00 62 1031.1
20260901200205 59 247 0.0 0.0 0.00 0.00 0.00 62 1031.0
20260901200105 59 247 0.0 0.0 0.00 0.00 0.00 62 1031.0
20260901200005 59 247 0.0 0.0 0.00 0.00 0.00 62 1031.0
20260901195905 59 247 0.0 0.0 0.00 0.00 0.00 62 1031.1
20260901195805 59 247 0.0 0.0 0.00 0.00 0.00 62 1031.0
20260901195705 59 247 0.0 0.0 0.00 0.00 0.00 62 1031.0
20260901195605 59 247 0.0 0.0 0.00 0.00 0.00 62 1031.1
20260901195505 60 247 0.0 0.0 0.00 0.00 0.00 62 1031.0
20260901195405 60 247 0.0 0.0 0.00 0.00 0.00 62 1031.0
20260901195306 60 247 0.0 0.0 0.00 0.00 0.00 61 1031.0
20260901195205 60 247 0.0 0.0 0.00 0.00 0.00 61 1031.0
20260901195105 60 247 0.0 0.0 0.00 0.00 0.00 61 1031.0
20260901195005 60 247 0.0 0.0 0.00 0.00 0.00 61 1031.0
20260901194905 60 247 0.0 0.0 0.00 0.00 0.00 61 1031.0
20260901194805 60 247 0.0 0.0 0.00 0.00 0.00 61 1031.0
20260901194705 60 247 0.0 0.0 0.00 0.00 0.00 61 1031.0
20260901194605 60 247 0.0 0.0 0.00 0.00 0.00 61 1031.0
20260901194505 60 247 0.0 0.0 0.00 0.00 0.00 61 1031.0
20260901194345 60 247 0.0 0.0 0.00 0.00 0.00 61 1031.0
20260901194305 60 247 0.0 0.0 0.00 0.00 0.00 61 1031.0
20260901194205 60 247 0.0 0.0 0.00 0.00 0.00 61 1031.0
20260901194105 60 247 0.0 0.0 0.00 0.00 0.00 61 1031.0
20260901194005 60 247 0.0 0.0 0.00 0.00 0.00 61 1031.0
20260901193905 60 247 0.0 0.0 0.00 0.00 0.00 61 1031.0
20260901193805 60 247 0.0 0.0 0.00 0.00 0.00 61 1031.0
20260901193705 60 247 0.0 0.0 0.00 0.00 0.00 61 1031.0
20260901193605 60 247 0.0 0.0 0.00 0.00 0.00 61 1030.9
20260901193505 61 247 0.0 0.0 0.00 0.00 0.00 61 1031.0
20260901193405 61 247 0.0 0.0 0.00 0.00 0.00 60 1031.0
20260901193305 61 247 0.0 0.0 0.00 0.00 0.00 60 1031.1
20260901193205 61 247 0.0 0.0 0.00 0.00 0.00 60 1031.1
20260901193105 61 247 0.0 0.0 0.00 0.00 0.00 60 1031.1
20260901193005 61 247 0.0 0.0 0.00 0.00 0.00 60 1031.0
20260901192905 61 247 0.0 0.0 0.00 0.00 0.00 60 1031.0
20260901192805 61 247 0.0 0.0 0.00 0.00 0.00 60 1031.0
20260901192705 61 247 0.0 0.0 0.00 0.00 0.00 60 1031.0
20260901192605 61 247 0.0 0.0 0.00 0.00 0.00 60 1030.9
20260901192505 61 247 0.0 0.0 0.00 0.00 0.00 60 1031.0
20260901192405 61 247 0.0 0.0 0.00 0.00 0.00 60 1030.9
20260901192306 61 247 0.0 0.0 0.00 0.00 0.00 60 1030.9
20260901192205 61 247 0.0 0.0 0.00 0.00 0.00 59 1030.9
20260901192105 61 247 0.0 0.0 0.00 0.00 0.00 59 1031.0
20260901192005 62 247 0.0 0.0 0.00 0.00 0.00 59 1031.0
20260901191905 62 247 0.0 0.0 0.00 0.00 0.00 59 1031.0
20260901191805 62 247 0.0 0.0 0.00 0.00 0.00 59 1030.9
20260901191705 62 247 0.0 0.0 0.00 0.00 0.00 59 1030.9
20260901191605 62 247 0.0 0.0 0.00 0.00 0.00 59 1031.0
20260901191505 62 247 0.0 0.0 0.00 0.00 0.00 59 1030.9
20260901191405 62 247 0.0 0.0 0.00 0.00 0.00 59 1031.0
20260901191305 62 247 0.0 0.0 0.00 0.00 0.00 59 1030.9
20260901191205 62 247 0.0 0.0 0.00 0.00 0.00 59 1030.9
20260901191105 62 247 0.0 0.0 0.00 0.00 0.00 59 1030.8
20260901191005 62 247 0.0 0.0 0.00 0.00 0.00 59 1030.8
20260901190905 62 247 0.0 0.0 0.00 0.00 0.00 58 1030.8
20260901190805 62 247 0.0 0.0 0.00 0.00 0.00 58 1030.9
20260901190705 62 247 0.0 0.0 0.00 0.00 0.00 58 1030.8
20260901190605 62 247 0.0 0.0 0.00 0.00 0.00 58 1030.8
20260901190505 63 247 0.0 0.0 0.00 0.00 0.00 58 1030.8
20260901190405 63 247 0.0 0.0 0.00 0.00 0.00 58 1030.6
20260901190305 63 247 0.0 0.0 0.00 0.00 0.00 58 1030.8
20260901190205 63 247 0.0 0.0 0.00 0.00 0.00 58 1030.9
20260901190105 63 247 0.0 0.0 0.00 0.00 0.00 58 1030.8
20260901190005 63 247 0.0 0.0 0.00 0.00 0.00 58 1030.9
20260901185905 63 247 0.0 0.0 0.00 0.00 0.00 58 1030.8
20260901185805 63 247 0.0 0.0 0.00 0.00 0.00 57 1030.9
20260901185705 63 247 0.0 0.0 0.00 0.00 0.00 57 1030.8
20260901185605 63 247 0.0 0.0 0.00 0.00 0.00 57 1030.8
20260901185505 64 247 0.0 0.0 0.00 0.00 0.00 57 1030.8
20260901185405 64 247 0.0 0.0 0.00 0.00 0.00 57 1030.8
20260901185306 64 247 0.0 0.0 0.00 0.00 0.00 57 1030.8
20260901185205 64 247 0.0 0.0 0.00 0.00 0.00 57 1030.8
20260901185105 64 247 0.0 0.0 0.00 0.00 0.00 57 1030.8
20260901185005 64 247 0.0 0.0 0.00 0.00 0.00 57 1030.5
20260901184905 64 247 0.0 0.0 0.00 0.00 0.00 57 1030.5
20260901184805 64 247 0.0 0.0 0.00 0.00 0.00 57 1030.5
20260901184705 64 247 0.0 0.0 0.00 0.00 0.00 57 1030.5
20260901184605 64 247 0.0 0.0 0.00 0.00 0.00 57 1030.6
20260901184505 64 247 0.0 0.0 0.00 0.00 0.00 57 1030.6
20260901184405 64 247 0.0 0.0 0.00 0.00 0.00 57 1030.5
20260901184305 64 247 0.0 0.0 0.00 0.00 0.00 57 1030.5
20260901184205 64 247 0.0 0.0 0.00 0.00 0.00 57 1030.5
20260901184105 64 247 0.0 0.0 0.00 0.00 0.00 56 1030.6
20260901184005 65 247 0.0 0.0 0.00 0.00 0.00 56 1030.6
20260901183905 65 247 0.0 0.0 0.00 0.00 0.00 56 1030.8
20260901183805 65 247 0.0 0.0 0.00 0.00 0.00 56 1030.6
20260901183705 65 247 0.0 0.0 0.00 0.00 0.00 56 1030.5
20260901183605 65 247 0.0 0.0 0.00 0.00 0.00 56 1030.6
20260901183505 65 247 0.0 0.0 0.00 0.00 0.00 56 1030.6
20260901183405 65 247 0.0 0.0 0.00 0.00 0.00 56 1030.8
20260901183305 65 247 0.0 0.0 0.00 0.00 0.00 56 1030.8
20260901183205 65 247 0.0 0.0 0.00 0.00 0.00 56 1030.6
20260901183105 65 247 0.0 0.0 0.00 0.00 0.00 56 1030.5
20260901183005 65 247 0.0 0.0 0.00 0.00 0.00 55 1030.6
20260901182905 66 247 0.0 0.0 0.00 0.00 0.00 55 1030.5
20260901182805 66 247 0.0 0.0 0.00 0.00 0.00 55 1030.5
20260901182705 66 247 0.0 0.0 0.00 0.00 0.00 55 1030.5
20260901182605 66 247 0.0 0.0 0.00 0.00 0.00 55 1030.5
20260901182505 66 247 0.0 0.0 0.00 0.00 0.00 55 1030.5
20260901182405 66 247 0.0 0.0 0.00 0.00 0.00 55 1030.5
20260901182305 66 247 0.0 0.0 0.00 0.00 0.00 55 1030.5
20260901182205 66 247 0.0 0.0 0.00 0.00 0.00 55 1030.5
20260901182105 66 247 0.0 0.0 0.00 0.00 0.00 55 1030.5
20260901182005 66 247 0.0 0.0 0.00 0.00 0.00 55 1030.5
20260901181905 66 247 0.0 0.0 0.00 0.00 0.00 55 1030.4
20260901181805 66 247 0.0 0.0 0.00 0.00 0.00 54 1030.5
20260901181705 66 247 0.0 0.0 0.00 0.00 0.00 54 1030.4
20260901181605 67 247 0.0 0.0 0.00 0.00 0.00 54 1030.4
20260901181505 67 247 0.0 0.0 0.00 0.00 0.00 54 1030.4
20260901181405 67 247 0.0 0.0 0.00 0.00 0.00 54 1030.3
20260901181305 67 247 0.0 0.0 0.00 0.00 0.00 54 1030.4
20260901181205 67 247 0.0 0.0 0.00 0.00 0.00 54 1030.3
20260901181105 67 247 0.0 0.0 0.00 0.00 0.00 54 1030.5
20260901181005 67 247 0.0 0.0 0.00 0.00 0.00 54 1030.3
20260901180905 67 247 0.0 0.0 0.00 0.00 0.00 54 1030.3
20260901180805 68 247 0.0 0.0 0.00 0.00 0.00 53 1030.3
20260901180705 68 247 0.0 0.0 0.00 0.00 0.00 53 1030.1
20260901180605 68 247 0.0 0.0 0.00 0.00 0.00 53 1030.1
20260901180505 68 247 0.0 0.0 0.00 0.00 0.00 53 1030.1
20260901180405 68 247 0.0 0.0 0.00 0.00 0.00 53 1030.3
20260901180305 68 247 0.0 0.0 0.00 0.00 0.00 53 1030.1
20260901180205 68 247 0.0 0.0 0.00 0.00 0.00 53 1030.3
20260901180105 68 247 0.0 0.0 0.00 0.00 0.00 53 1030.4
20260901180005 69 247 0.0 0.0 0.00 0.00 0.00 53 1030.4
20260901175905 69 247 0.0 0.0 0.00 0.00 0.00 53 1030.3
20260901175805 69 247 0.0 0.0 0.00 0.00 0.00 53 1030.1
20260901175705 69 247 0.0 0.0 0.00 0.00 0.00 53 1030.1
20260901175605 69 247 0.0 0.0 0.00 0.00 0.00 53 1030.1
20260901175505 69 247 0.0 0.0 0.00 0.00 0.00 52 1030.1
20260901175405 69 247 0.0 0.0 0.00 0.00 0.00 52 1030.1
20260901175305 69 247 0.0 0.0 0.00 0.00 0.00 52 1030.3
20260901175205 69 247 0.0 0.0 0.00 0.00 0.00 52 1030.3
20260901175105 69 247 0.0 0.0 0.00 0.00 0.00 52 1030.0
20260901175005 70 247 0.0 0.0 0.00 0.00 0.00 52 1030.1
20260901174905 70 247 0.0 0.0 0.00 0.00 0.00 52 1030.1
20260901174805 70 247 0.0 0.0 0.00 0.00 0.00 52 1030.1
20260901174705 70 247 0.0 0.0 0.00 0.00 0.00 52 1030.3
20260901174605 70 247 0.0 0.0 0.00 0.00 0.00 52 1030.3
20260901174505 70 247 0.0 0.0 0.00 0.00 0.00 52 1030.4
20260901174405 70 247 0.0 0.0 0.00 0.00 0.00 51 1030.4
20260901174305 70 247 0.0 0.0 0.00 0.00 0.00 51 1030.3
20260901174205 70 247 0.0 0.0 0.00 0.00 0.00 51 1030.4
20260901174105 70 247 0.0 0.0 0.00 0.00 0.00 51 1030.3
20260901174006 71 247 0.0 0.0 0.00 0.00 0.00 51 1030.3
20260901173905 71 247 0.0 0.0 0.00 0.00 0.00 51 1030.0
20260901173805 71 247 0.0 0.0 0.00 0.00 0.00 51 1030.1
20260901173705 71 247 0.0 0.0 0.00 0.00 0.00 51 1030.0
20260901173605 71 247 0.0 0.0 0.00 0.00 0.00 51 1030.0
20260901173505 71 247 0.0 0.0 0.00 0.00 0.00 51 1030.0
20260901173405 71 247 0.0 0.0 0.00 0.00 0.00 51 1030.0
20260901173305 71 247 0.0 0.0 0.00 0.00 0.00 51 1030.3
20260901173205 71 247 0.0 0.0 0.00 0.00 0.00 50 1030.1
20260901173105 72 247 0.0 0.0 0.00 0.00 0.00 50 1030.1
20260901173005 72 247 0.0 0.0 0.00 0.00 0.00 50 1030.1
20260901172905 72 247 0.0 0.0 0.00 0.00 0.00 50 1030.1
20260901172805 72 247 0.0 0.0 0.00 0.00 0.00 50 1030.0
20260901172705 72 247 0.0 0.0 0.00 0.00 0.00 50 1030.0
20260901172605 72 247 0.0 0.0 0.00 0.00 0.00 50 1030.1
20260901172505 72 247 0.0 0.0 0.00 0.00 0.00 50 1030.1
20260901172405 72 247 0.0 0.0 0.00 0.00 0.00 50 1030.0
20260901172305 72 247 0.0 0.0 0.00 0.00 0.00 50 1030.0
20260901172205 72 247 0.0 0.0 0.00 0.00 0.00 50 1030.1
20260901172105 73 247 0.0 0.0 0.00 0.00 0.00 50 1030.0
20260901172005 73 247 0.0 0.0 0.00 0.00 0.00 49 1030.0
20260901171905 73 247 0.0 0.0 0.00 0.00 0.00 49 1030.0
20260901171805 73 247 0.0 0.0 0.00 0.00 0.00 49 1030.0
20260901171705 73 247 0.0 0.0 0.00 0.00 0.00 49 1030.0
20260901171605 73 247 0.0 0.0 0.00 0.00 0.00 49 1030.0
20260901171505 73 247 0.0 0.0 0.00 0.00 0.00 49 1030.0
20260901171405 73 247 0.0 0.0 0.00 0.00 0.00 49 1030.0
20260901171305 73 247 183.0 0.0 0.00 0.00 0.00 49 1030.1
20260901171205 73 247 0.0 0.0 0.00 0.00 0.00 49 1030.1
20260901171105 73 247 0.0 0.0 0.00 0.00 0.00 49 1030.1
20260901171005 73 247 0.0 0.0 0.00 0.00 0.00 49 1030.1
20260901170905 73 247 0.0 0.0 0.00 0.00 0.00 48 1030.1
20260901170805 73 247 0.0 0.0 0.00 0.00 0.00 48 1030.1
20260901170705 73 247 0.0 0.0 0.00 0.00 0.00 48 1030.0
20260901170605 73 247 0.0 0.0 0.00 0.00 0.00 48 1030.0
20260901170504 74 247 0.0 0.0 0.00 0.00 0.00 48 1030.1
20260901170405 74 247 0.0 0.0 0.00 0.00 0.00 48 1030.0
20260901170305 74 247 0.0 0.0 0.00 0.00 0.00 48 1030.0
20260901170205 74 247 0.0 0.0 0.00 0.00 0.00 48 1030.0
20260901170105 74 247 0.0 0.0 0.00 0.00 0.00 48 1030.0
20260901170005 74 247 0.0 0.0 0.00 0.00 0.00 48 1030.0
20260901165905 74 247 0.0 0.0 0.00 0.00 0.00 47 1030.0
20260901165804 74 247 0.0 0.0 0.00 0.00 0.00 47 1030.0
20260901165704 74 247 0.0 0.0 0.00 0.00 0.00 47 1030.0
20260901165605 74 247 0.0 0.0 0.00 0.00 0.00 47 1030.1
20260901165505 75 247 0.0 0.0 0.00 0.00 0.00 47 1030.1
20260901165404 75 247 0.0 0.0 0.00 0.00 0.00 47 1030.1
20260901165306 75 247 0.0 0.0 0.00 0.00 0.00 47 1030.0
20260901165205 75 247 0.0 0.0 0.00 0.00 0.00 47 1030.0
20260901165104 75 247 0.0 0.0 0.00 0.00 0.00 47 1030.0
20260901165004 75 247 0.0 0.0 0.00 0.00 0.00 46 1030.0
20260901164904 75 247 0.0 0.0 0.00 0.00 0.00 46 1030.0
20260901164805 75 247 0.0 0.0 0.00 0.00 0.00 46 1030.0
20260901164705 75 247 0.0 0.0 0.00 0.00 0.00 46 1030.0
20260901164605 75 247 0.0 0.0 0.00 0.00 0.00 46 1030.0
20260901164504 75 247 0.0 0.0 0.00 0.00 0.00 46 1030.0
20260901164404 75 247 0.0 0.0 0.00 0.00 0.00 46 1030.0
20260901164305 75 247 0.0 0.0 0.00 0.00 0.00 46 1030.0
20260901164204 76 247 0.0 0.0 0.00 0.00 0.00 46 1030.0
20260901164104 76 247 0.0 0.0 0.00 0.00 0.00 46 1030.0
20260901164004 76 247 0.0 0.0 0.00 0.00 0.00 46 1030.1
20260901163905 76 247 0.0 0.0 0.00 0.00 0.00 46 1030.1
20260901163805 76 247 0.0 0.0 0.00 0.00 0.00 46 1030.1
20260901163704 76 247 0.0 0.0 0.00 0.00 0.00 46 1030.0
20260901163604 76 247 0.0 0.0 0.00 0.00 0.00 46 1030.1
20260901163504 76 247 0.0 0.0 0.00 0.00 0.00 46 1030.1
20260901163404 76 247 0.0 0.0 0.00 0.00 0.00 46 1030.1
20260901163304 76 247 0.0 0.0 0.00 0.00 0.00 45 1030.1
20260901163205 77 247 0.0 0.0 0.00 0.00 0.00 45 1030.3
20260901163105 76 247 0.0 0.0 0.00 0.00 0.00 45 1030.3
20260901163004 77 247 0.0 0.0 0.00 0.00 0.00 45 1030.1
20260901162905 77 247 0.0 0.0 0.00 0.00 0.00 45 1030.0
20260901162804 77 247 0.0 0.0 0.00 0.00 0.00 45 1030.3
20260901162704 77 247 0.0 0.0 0.00 0.00 0.00 45 1030.1
20260901162604 77 247 0.0 0.0 0.00 0.00 0.00 45 1030.1
20260901162505 77 247 0.0 0.0 0.00 0.00 0.00 45 1030.3
20260901162404 77 247 0.0 0.0 0.00 0.00 0.00 45 1030.3
20260901162306 77 247 0.0 0.0 0.00 0.00 0.00 45 1030.3
20260901162204 77 247 0.0 0.0 0.00 0.00 0.00 45 1030.3
20260901162104 77 247 0.0 0.0 0.00 0.00 0.00 45 1030.4
20260901162004 77 247 0.0 0.0 0.00 0.00 0.00 45 1030.3
20260901161904 77 247 0.0 0.0 0.00 0.00 0.00 45 1030.4
20260901161804 77 247 0.0 0.0 0.00 0.00 0.00 45 1030.4
20260901161704 77 247 0.0 0.0 0.00 0.00 0.00 45 1030.3
20260901161604 77 247 0.0 0.0 0.00 0.00 0.00 45 1030.3
20260901161504 77 247 0.0 0.0 0.00 0.00 0.00 45 1030.3
20260901161404 78 247 0.0 0.0 0.00 0.00 0.00 45 1030.3
20260901161304 78 247 0.0 0.0 0.00 0.00 0.00 45 1030.1
20260901161204 78 247 0.0 0.0 0.00 0.00 0.00 45 1030.4
20260901161104 78 247 0.0 0.0 0.00 0.00 0.00 45 1030.3
20260901161004 78 247 0.0 0.0 0.00 0.00 0.00 44 1030.4
20260901160904 78 247 0.0 0.0 0.00 0.00 0.00 44 1030.3
20260901160804 78 247 0.0 0.0 0.00 0.00 0.00 44 1030.3
20260901160704 78 247 0.0 0.0 0.00 0.00 0.00 44 1030.4
20260901160604 78 247 0.0 0.0 0.00 0.00 0.00 44 1030.4
20260901160504 78 247 0.0 0.0 0.00 0.00 0.00 44 1030.3
20260901160404 78 247 0.0 0.0 0.00 0.00 0.00 44 1030.3
20260901160304 78 247 0.0 0.0 0.00 0.00 0.00 44 1030.3
20260901160204 78 247 0.0 0.0 0.00 0.00 0.00 44 1030.4
20260901160104 79 247 0.0 0.0 0.00 0.00 0.00 44 1030.3
20260901160004 79 247 1.0 0.0 0.00 0.00 0.00 44 1030.5
20260901155904 79 247 0.0 0.0 0.00 0.00 0.00 44 1030.4
20260901155804 79 247 0.0 0.0 0.00 0.00 0.00 44 1030.4
20260901155704 79 247 0.0 0.0 0.00 0.00 0.00 44 1030.4
20260901155604 79 247 0.0 0.0 0.00 0.00 0.00 44 1030.4
20260901155504 79 247 0.0 0.0 0.00 0.00 0.00 44 1030.4
20260901155404 79 247 0.0 0.0 0.00 0.00 0.00 44 1030.5
20260901155306 79 247 0.0 0.0 0.00 0.00 0.00 44 1030.4
20260901155204 79 247 0.0 0.0 0.00 0.00 0.00 44 1030.4
20260901155104 79 247 0.0 0.0 0.00 0.00 0.00 44 1030.4
20260901155004 80 247 4.0 0.0 0.00 0.00 0.00 44 1030.4
20260901154904 80 247 0.0 0.0 0.00 0.00 0.00 44 1030.4
20260901154804 80 247 0.0 0.0 0.00 0.00 0.00 44 1030.1
20260901154704 80 247 0.0 0.0 0.00 0.00 0.00 44 1030.1
20260901154604 80 247 0.0 0.0 0.00 0.00 0.00 44 1030.1
20260901154504 80 247 0.0 0.0 0.00 0.00 0.00 44 1030.1
20260901154404 80 247 2.0 0.0 0.00 0.00 0.00 43 1030.1
20260901154304 80 247 2.0 0.0 0.00 0.00 0.00 43 1030.3
20260901154204 80 247 0.0 0.0 0.00 0.00 0.00 43 1030.3
20260901154104 81 247 0.0 0.0 0.00 0.00 0.00 43 1030.1
20260901154004 81 247 0.0 0.0 0.00 0.00 0.00 43 1030.3
20260901153904 81 247 0.0 0.0 0.00 0.00 0.00 43 1030.3
20260901153804 81 247 3.0 0.0 0.00 0.00 0.00 44 1030.3
20260901153704 81 247 2.0 0.0 0.00 0.00 0.00 44 1030.3
20260901153604 81 247 0.0 0.0 0.00 0.00 0.00 44 1030.1
20260901153504 81 247 5.0 0.0 0.00 0.00 0.00 44 1030.1
20260901153404 81 247 0.0 0.0 0.00 0.00 0.00 44 1030.3
20260901153304 81 247 0.0 0.0 0.00 0.00 0.00 44 1030.1
20260901153204 81 247 3.0 0.0 0.00 0.00 0.00 44 1030.3
20260901153104 81 247 5.0 0.0 0.00 0.00 0.00 44 1030.4
20260901153004 81 247 0.0 0.0 0.00 0.00 0.00 44 1030.4
20260901152904 81 247 0.0 0.0 0.00 0.00 0.00 44 1030.4
20260901152804 81 247 4.0 0.0 0.00 0.00 0.00 44 1030.4
20260901152704 81 247 7.0 0.0 0.00 0.00 0.00 44 1030.5
20260901152604 81 247 0.0 0.0 0.00 0.00 0.00 44 1030.3
20260901152504 81 247 6.0 0.0 0.00 0.00 0.00 44 1030.3
20260901152404 81 247 2.0 0.0 0.00 0.00 0.00 44 1030.1
20260901152306 81 247 0.0 0.0 0.00 0.00 0.00 44 1030.1
20260901152204 81 247 1.0 0.0 0.00 0.00 0.00 44 1030.1
20260901152104 82 247 0.0 0.0 0.00 0.00 0.00 44 1030.3
20260901152004 81 247 0.0 0.0 0.00 0.00 0.00 44 1030.3
20260901151904 81 247 0.0 0.0 0.00 0.00 0.00 44 1030.1
20260901151804 82 247 0.0 0.0 0.00 0.00 0.00 44 1030.3
20260901151704 82 247 2.0 0.0 0.00 0.00 0.00 44 1030.3
20260901151604 82 247 2.0 0.0 0.00 0.00 0.00 44 1030.1
20260901151504 82 247 0.0 0.0 0.00 0.00 0.00 44 1030.1
20260901151404 82 247 0.0 0.0 0.00 0.00 0.00 44 1030.1
20260901151304 82 247 0.0 0.0 0.00 0.00 0.00 44 1030.1
20260901151204 82 247 10.0 0.0 0.00 0.00 0.00 44 1030.3
20260901151104 82 247 1.0 0.0 0.00 0.00 0.00 44 1030.3
20260901151004 82 247 1.0 0.0 0.00 0.00 0.00 44 1030.3
20260901150904 82 247 5.0 0.0 0.00 0.00 0.00 44 1030.1
20260901150804 82 247 4.0 0.0 0.00 0.00 0.00 44 1030.1
20260901150704 82 270 0.0 0.0 0.00 0.00 0.00 44 1030.3
20260901150604 82 292 0.0 0.0 0.00 0.00 0.00 44 1030.4
20260901150504 82 292 0.0 0.0 0.00 0.00 0.00 44 1030.3
20260901150404 82 292 0.0 0.0 0.00 0.00 0.00 44 1030.3
20260901150304 82 292 0.0 0.0 0.00 0.00 0.00 43 1030.3
20260901150204 82 292 0.0 0.0 0.00 0.00 0.00 43 1030.3
20260901150104 83 292 0.0 0.0 0.00 0.00 0.00 43 1030.0
20260901150004 83 292 0.0 0.0 0.00 0.00 0.00 43 1030.1
20260901145904 83 292 0.0 0.0 0.00 0.00 0.00 43 1030.1
20260901145805 83 292 0.0 0.0 0.00 0.00 0.00 43 1030.3
20260901145704 83 292 0.0 0.0 0.00 0.00 0.00 43 1030.3
20260901145604 83 292 0.0 0.0 0.00 0.00 0.00 43 1030.0
20260901145504 83 292 0.0 0.0 0.00 0.00 0.00 43 1030.3
20260901145404 83 292 0.0 0.0 0.00 0.00 0.00 43 1030.3
20260901145306 83 292 0.0 0.0 0.00 0.00 0.00 43 1030.3
20260901145204 83 292 0.0 0.0 0.00 0.00 0.00 43 1030.1
20260901145104 83 292 0.0 0.0 0.00 0.00 0.00 43 1030.3
20260901145004 83 292 0.0 0.0 0.00 0.00 0.00 43 1030.3
20260901144904 83 292 0.0 0.0 0.00 0.00 0.00 44 1030.4
20260901144804 83 292 0.0 0.0 0.00 0.00 0.00 44 1030.4
20260901144704 83 292 0.0 0.0 0.00 0.00 0.00 44 1030.3
20260901144604 83 292 0.0 0.0 0.00 0.00 0.00 44 1030.3
20260901144504 83 292 0.0 0.0 0.00 0.00 0.00 44 1030.4
20260901144404 83 292 0.0 0.0 0.00 0.00 0.00 44 1030.3
20260901144304 83 292 0.0 0.0 0.00 0.00 0.00 44 1030.3
20260901144204 84 292 0.0 0.0 0.00 0.00 0.00 44 1030.3
20260901144104 84 292 0.0 0.0 0.00 0.00 0.00 44 1030.3
20260901144004 84 292 0.0 0.0 0.00 0.00 0.00 44 1030.3
20260901143904 84 292 0.0 0.0 0.00 0.00 0.00 44 1030.4
20260901143804 84 292 0.0 0.0 0.00 0.00 0.00 44 1030.3
20260901143704 84 292 0.0 0.0 0.00 0.00 0.00 44 1030.3
20260901143604 84 292 0.0 0.0 0.00 0.00 0.00 44 1030.3
20260901143504 84 292 0.0 0.0 0.00 0.00 0.00 44 1030.3
20260901143404 83 292 0.0 0.0 0.00 0.00 0.00 44 1030.1
20260901143304 83 292 0.0 0.0 0.00 0.00 0.00 44 1030.1
20260901143204 83 292 0.0 0.0 0.00 0.00 0.00 44 1030.3
20260901143104 83 292 0.0 0.0 0.00 0.00 0.00 44 1030.1
20260901143004 83 292 0.0 0.0 0.00 0.00 0.00 44 1030.1
20260901142904 83 292 0.0 0.0 0.00 0.00 0.00 44 1030.1
20260901142804 83 292 0.0 0.0 0.00 0.00 0.00 44 1030.1
20260901142704 83 292 0.0 0.0 0.00 0.00 0.00 44 1030.0
20260901142604 83 292 0.0 0.0 0.00 0.00 0.00 44 1030.1
20260901142504 83 292 0.0 0.0 0.00 0.00 0.00 44 1030.1
20260901142404 83 292 0.0 0.0 0.00 0.00 0.00 44 1030.3
20260901142306 83 292 0.0 0.0 0.00 0.00 0.00 44 1030.1
20260901142204 83 292 0.0 0.0 0.00 0.00 0.00 44 1030.1
20260901142104 83 292 0.0 0.0 0.00 0.00 0.00 44 1030.1
20260901142004 83 292 0.0 0.0 0.00 0.00 0.00 44 1030.3
20260901141904 83 292 0.0 0.0 0.00 0.00 0.00 44 1030.1
20260901141804 83 292 0.0 0.0 0.00 0.00 0.00 44 1030.1
20260901141704 83 292 0.0 0.0 0.00 0.00 0.00 44 1030.1
20260901141604 83 292 0.0 0.0 0.00 0.00 0.00 44 1030.3
20260901141504 83 292 0.0 0.0 0.00 0.00 0.00 44 1030.3
20260901141404 82 292 0.0 0.0 0.00 0.00 0.00 44 1030.4
20260901141304 82 292 0.0 0.0 0.00 0.00 0.00 44 1030.3
20260901141204 82 292 0.0 0.0 0.00 0.00 0.00 44 1030.3
20260901141104 82 292 0.0 0.0 0.00 0.00 0.00 44 1030.3
20260901141004 82 292 0.0 0.0 0.00 0.00 0.00 44 1030.4
20260901140904 82 292 0.0 0.0 0.00 0.00 0.00 44 1030.4
20260901140804 82 292 0.0 0.0 0.00 0.00 0.00 44 1030.4
20260901140704 82 292 0.0 0.0 0.00 0.00 0.00 44 1030.4
20260901140604 82 292 0.0 0.0 0.00 0.00 0.00 44 1030.4
20260901140504 82 292 0.0 0.0 0.00 0.00 0.00 44 1030.4
20260901140404 82 292 0.0 0.0 0.00 0.00 0.00 44 1030.4
20260901140304 82 292 0.0 0.0 0.00 0.00 0.00 44 1030.4
20260901140204 82 292 0.0 0.0 0.00 0.00 0.00 45 1030.5
20260901140104 82 292 2.0 0.0 0.00 0.00 0.00 45 1030.5
20260901140004 82 292 0.0 0.0 0.00 0.00 0.00 45 1030.4
20260901135904 82 292 0.0 0.0 0.00 0.00 0.00 45 1030.5
20260901135804 82 292 3.0 0.0 0.00 0.00 0.00 45 1030.4
20260901135704 82 292 0.0 0.0 0.00 0.00 0.00 45 1030.4
20260901135604 82 292 6.0 0.0 0.00 0.00 0.00 45 1030.4
20260901135504 81 292 0.0 0.0 0.00 0.00 0.00 45 1030.4
20260901135404 81 292 0.0 0.0 0.00 0.00 0.00 45 1030.5
20260901135305 81 292 0.0 0.0 0.00 0.00 0.00 45 1030.4
20260901135204 81 292 0.0 0.0 0.00 0.00 0.00 45 1030.5
20260901135104 81 292 3.0 0.0 0.00 0.00 0.00 45 1030.5
20260901135004 81 292 0.0 0.0 0.00 0.00 0.00 45 1030.5
20260901134904 81 292 0.0 0.0 0.00 0.00 0.00 45 1030.5
20260901134804 81 292 0.0 0.0 0.00 0.00 0.00 45 1030.5
20260901134704 81 292 0.0 0.0 0.00 0.00 0.00 44 1030.5
20260901134604 82 292 0.0 0.0 0.00 0.00 0.00 45 1030.4
20260901134504 82 292 0.0 0.0 0.00 0.00 0.00 45 1030.5
20260901134404 82 292 0.0 0.0 0.00 0.00 0.00 44 1030.5
20260901134304 82 292 0.0 0.0 0.00 0.00 0.00 44 1030.5
20260901134204 82 292 0.0 0.0 0.00 0.00 0.00 44 1030.5
20260901134104 82 292 0.0 0.0 0.00 0.00 0.00 44 1030.5
20260901134004 82 292 0.0 0.0 0.00 0.00 0.00 44 1030.5
20260901133904 82 292 0.0 0.0 0.00 0.00 0.00 44 1030.5
20260901133804 82 292 0.0 0.0 0.00 0.00 0.00 44 1030.5
20260901133704 82 292 0.0 0.0 0.00 0.00 0.00 44 1030.5
20260901133604 82 292 0.0 0.0 0.00 0.00 0.00 45 1030.5
20260901133504 82 292 0.0 0.0 0.00 0.00 0.00 44 1030.5
20260901133404 82 292 0.0 0.0 0.00 0.00 0.00 44 1030.5
20260901133304 82 292 0.0 0.0 0.00 0.00 0.00 44 1030.5
20260901133204 82 292 0.0 0.0 0.00 0.00 0.00 44 1030.5
20260901133104 82 292 0.0 0.0 0.00 0.00 0.00 44 1030.5
20260901133004 82 292 0.0 0.0 0.00 0.00 0.00 44 1030.5
20260901132904 82 292 0.0 0.0 0.00 0.00 0.00 44 1030.5
20260901132804 82 292 9.0 0.0 0.00 0.00 0.00 45 1030.4
20260901132704 82 292 0.0 0.0 0.00 0.00 0.00 45 1030.4
20260901132604 82 292 0.0 0.0 0.00 0.00 0.00 45 1030.4
20260901132504 82 292 0.0 0.0 0.00 0.00 0.00 45 1030.4
20260901132404 82 292 3.0 0.0 0.00 0.00 0.00 45 1030.4
20260901132307 82 292 0.0 0.0 0.00 0.00 0.00 45 1030.4
20260901132204 82 292 0.0 0.0 0.00 0.00 0.00 45 1030.4
20260901132104 82 292 2.0 0.0 0.00 0.00 0.00 45 1030.4
20260901132004 82 292 0.0 0.0 0.00 0.00 0.00 45 1030.4
20260901131904 82 292 0.0 0.0 0.00 0.00 0.00 45 1030.5
20260901131804 83 292 183.0 0.0 0.00 0.00 0.00 45 1030.4
20260901131704 83 292 0.0 0.0 0.00 0.00 0.00 46 1030.4
20260901131604 83 292 0.0 0.0 0.00 0.00 0.00 46 1030.4
20260901131504 83 292 3.0 0.0 0.00 0.00 0.00 46 1030.4
20260901131404 83 225 0.0 0.0 0.00 0.00 0.00 46 1030.5
20260901131304 83 157 0.0 0.0 0.00 0.00 0.00 47 1030.5
20260901131204 83 157 0.0 0.0 0.00 0.00 0.00 47 1030.5
20260901131104 83 157 0.0 0.0 0.00 0.00 0.00 47 1030.5
20260901131004 83 157 0.0 0.0 0.00 0.00 0.00 47 1030.5
20260901130904 83 157 0.0 0.0 0.00 0.00 0.00 47 1030.5
20260901130804 83 157 0.0 0.0 0.00 0.00 0.00 47 1030.5
20260901130704 83 157 0.0 0.0 0.00 0.00 0.00 47 1030.5